Time,TemperatureF,DewpointF,PressureIn,WindDirection,WindDirectionDegrees,WindSpeedMPH,WindSpeedGustMPH,Humidity,HourlyPrecipIn,Conditions,Clouds,dailyrainin,SoftwareType,DateUTC
2013-05-14 00:00:00,62.8,52.9,25.31,ENE,78,6.3,8.3,70,0.00,,---,0.00,VWS V14.01,2013-05-14 06:00:00,
2013-05-14 00:01:00,62.8,52.9,25.31,SE,127,3.6,6.3,70,0.00,,---,0.00,VWS V14.01,2013-05-14 06:01:00,
2013-05-14 00:02:00,62.8,52.9,25.31,East,85,9.6,9.6,70,0.00,,---,0.00,VWS V14.01,2013-05-14 06:02:00,
2013-05-14 00:06:00,62.6,53.1,25.28,ESE,111,5.8,8.7,71,0.00,,---,0.00,VWS V14.01,2013-05-14 06:06:00,
2013-05-14 00:07:00,62.6,53.1,25.28,ESE,111,5.8,5.8,71,0.00,,---,0.00,VWS V14.01,2013-05-14 06:07:00,
2013-05-14 00:09:00,62.6,53.1,25.28,NE,53,7.6,7.6,71,0.00,,---,0.00,VWS V14.01,2013-05-14 06:09:00,
2013-05-14 00:12:00,62.6,53.1,25.28,ENE,77,6.3,11.0,71,0.00,,---,0.00,VWS V14.01,2013-05-14 06:12:00,
2013-05-14 00:13:00,62.6,53.5,25.28,ENE,75,7.6,7.6,72,0.00,,---,0.00,VWS V14.01,2013-05-14 06:13:00,
2013-05-14 00:15:00,62.6,53.5,25.28,NE,56,4.9,7.6,72,0.00,,---,0.00,VWS V14.01,2013-05-14 06:15:00,
2013-05-14 00:16:00,62.6,53.5,25.28,East,94,4.5,4.9,72,0.00,,---,0.00,VWS V14.01,2013-05-14 06:16:00,
2013-05-14 00:17:00,62.6,53.5,25.28,East,94,4.5,4.5,72,0.00,,---,0.00,VWS V14.01,2013-05-14 06:17:00,
2013-05-14 00:18:00,62.6,53.5,25.28,North,8,5.4,5.4,72,0.00,,---,0.00,VWS V14.01,2013-05-14 06:18:00,
2013-05-14 00:19:00,62.6,53.5,25.31,North,8,5.4,5.4,72,0.00,,---,0.00,VWS V14.01,2013-05-14 06:19:00,
2013-05-14 00:22:00,62.6,53.5,25.31,SSE,155,15.4,15.4,72,0.00,,---,0.00,VWS V14.01,2013-05-14 06:22:00,
2013-05-14 00:24:00,62.6,53.1,25.31,SE,146,5.4,10.1,71,0.00,,---,0.00,VWS V14.01,2013-05-14 06:24:00,
2013-05-14 00:26:00,62.6,53.1,25.31,SE,146,5.4,5.4,71,0.00,,---,0.00,VWS V14.01,2013-05-14 06:26:00,
2013-05-14 00:29:00,62.6,52.7,25.31,ENE,70,5.8,8.1,70,0.00,,---,0.00,VWS V14.01,2013-05-14 06:29:00,
2013-05-14 00:30:00,62.6,52.7,25.31,ENE,70,5.8,5.8,70,0.00,,---,0.00,VWS V14.01,2013-05-14 06:30:00,
2013-05-14 00:31:00,62.6,52.3,25.31,ENE,70,5.8,5.8,69,0.00,,---,0.00,VWS V14.01,2013-05-14 06:31:00,
2013-05-14 00:32:00,62.6,52.3,25.31,ESE,111,6.3,10.5,69,0.00,,---,0.00,VWS V14.01,2013-05-14 06:32:00,
2013-05-14 00:33:00,62.6,52.3,25.31,SE,127,5.8,6.3,69,0.00,,---,0.00,VWS V14.01,2013-05-14 06:33:00,
2013-05-14 00:35:00,62.8,52.9,25.31,ESE,108,5.8,5.8,70,0.00,,---,0.00,VWS V14.01,2013-05-14 06:35:00,
2013-05-14 00:39:00,62.8,52.5,25.28,SSE,158,4.9,8.1,69,0.00,,---,0.00,VWS V14.01,2013-05-14 06:39:00,
2013-05-14 00:40:00,62.8,52.5,25.28,SSE,158,4.9,4.9,69,0.00,,---,0.00,VWS V14.01,2013-05-14 06:40:00,
2013-05-14 00:43:00,63.0,52.6,25.28,East,92,8.3,8.3,69,0.00,,---,0.00,VWS V14.01,2013-05-14 06:43:00,
2013-05-14 00:45:00,63.0,52.6,25.28,East,95,10.5,10.5,69,0.00,,---,0.00,VWS V14.01,2013-05-14 06:45:00,
2013-05-14 00:46:00,63.0,52.6,25.28,East,81,12.8,12.8,69,0.00,,---,0.00,VWS V14.01,2013-05-14 06:46:00,
2013-05-14 00:47:00,63.0,52.6,25.28,East,81,12.8,12.8,69,0.00,,---,0.00,VWS V14.01,2013-05-14 06:47:00,
2013-05-14 00:51:00,63.0,52.6,25.28,NE,55,10.5,10.5,69,0.00,,---,0.00,VWS V14.01,2013-05-14 06:51:00,
2013-05-14 00:52:00,63.0,52.6,25.28,ESE,102,10.1,10.5,69,0.00,,---,0.00,VWS V14.01,2013-05-14 06:52:00,
2013-05-14 00:54:00,62.8,52.5,25.28,East,97,5.8,8.1,69,0.00,,---,0.00,VWS V14.01,2013-05-14 06:54:00,
2013-05-14 00:56:00,62.8,52.5,25.28,ESE,123,8.7,8.7,69,0.00,,---,0.00,VWS V14.01,2013-05-14 06:56:00,
2013-05-14 00:58:00,62.8,52.5,25.28,ESE,102,6.3,8.7,69,0.00,,---,0.00,VWS V14.01,2013-05-14 06:58:00,
2013-05-14 01:00:00,62.8,52.5,25.28,SE,138,8.3,8.3,69,0.00,,---,0.00,VWS V14.01,2013-05-14 07:00:00,
2013-05-14 01:01:00,62.8,52.5,25.28,East,99,8.3,10.5,69,0.00,,---,0.00,VWS V14.01,2013-05-14 07:01:00,
2013-05-14 01:04:00,62.6,51.9,25.28,South,170,8.7,8.7,68,0.00,,---,0.00,VWS V14.01,2013-05-14 07:04:00,
2013-05-14 01:06:00,62.6,51.9,25.28,ENE,58,4.9,8.7,68,0.00,,---,0.00,VWS V14.01,2013-05-14 07:06:00,
2013-05-14 01:08:00,62.6,51.9,25.28,ENE,72,8.7,8.7,68,0.00,,---,0.00,VWS V14.01,2013-05-14 07:08:00,
2013-05-14 01:09:00,62.8,52.1,25.28,SE,128,5.4,8.7,68,0.00,,---,0.00,VWS V14.01,2013-05-14 07:09:00,
2013-05-14 01:14:00,62.6,51.9,25.28,East,96,7.6,7.6,68,0.00,,---,0.00,VWS V14.01,2013-05-14 07:14:00,
2013-05-14 01:15:00,62.6,51.9,25.28,ESE,119,7.6,7.6,68,0.00,,---,0.00,VWS V14.01,2013-05-14 07:15:00,
2013-05-14 01:16:00,62.6,51.9,25.28,SSE,151,4.0,7.6,68,0.00,,---,0.00,VWS V14.01,2013-05-14 07:16:00,
2013-05-14 01:17:00,62.6,51.5,25.28,SSE,151,4.0,4.0,67,0.00,,---,0.00,VWS V14.01,2013-05-14 07:17:00,
2013-05-14 01:20:00,62.4,51.3,25.28,SE,126,3.1,3.1,67,0.00,,---,0.00,VWS V14.01,2013-05-14 07:20:00,
2013-05-14 01:21:00,62.4,51.3,25.28,SE,126,3.1,3.1,67,0.00,,---,0.00,VWS V14.01,2013-05-14 07:21:00,
2013-05-14 01:23:00,62.6,51.1,25.28,East,79,5.8,5.8,66,0.00,,---,0.00,VWS V14.01,2013-05-14 07:23:00,
2013-05-14 01:25:00,62.6,51.1,25.28,SE,133,12.3,12.3,66,0.00,,---,0.00,VWS V14.01,2013-05-14 07:25:00,
2013-05-14 01:27:00,62.6,51.1,25.28,SE,133,12.3,12.3,66,0.00,,---,0.00,VWS V14.01,2013-05-14 07:27:00,
2013-05-14 01:28:00,62.6,51.1,25.28,ENE,60,6.3,12.3,66,0.00,,---,0.00,VWS V14.01,2013-05-14 07:28:00,
2013-05-14 01:29:00,62.4,50.9,25.28,SE,139,7.6,7.6,66,0.00,,---,0.00,VWS V14.01,2013-05-14 07:29:00,
2013-05-14 01:30:00,62.4,50.9,25.28,SE,142,5.8,7.6,66,0.00,,---,0.00,VWS V14.01,2013-05-14 07:30:00,
2013-05-14 01:34:00,62.4,50.9,25.28,East,98,4.0,4.0,66,0.00,,---,0.00,VWS V14.01,2013-05-14 07:34:00,
2013-05-14 01:36:00,62.4,50.5,25.28,SE,146,5.8,7.2,65,0.00,,---,0.00,VWS V14.01,2013-05-14 07:36:00,
2013-05-14 01:37:00,62.4,50.5,25.28,SE,146,5.8,5.8,65,0.00,,---,0.00,VWS V14.01,2013-05-14 07:37:00,
2013-05-14 01:40:00,62.4,50.1,25.28,SSE,151,10.5,10.5,64,0.00,,---,0.00,VWS V14.01,2013-05-14 07:40:00,
2013-05-14 01:43:00,62.6,49.4,25.28,East,95,4.0,4.0,62,0.00,,---,0.00,VWS V14.01,2013-05-14 07:43:00,
2013-05-14 01:44:00,62.6,49.0,25.28,East,95,4.0,4.0,61,0.00,,---,0.00,VWS V14.01,2013-05-14 07:44:00,
2013-05-14 01:46:00,62.6,48.5,25.28,East,95,4.0,4.0,60,0.00,,---,0.00,VWS V14.01,2013-05-14 07:46:00,
2013-05-14 01:48:00,62.8,48.7,25.28,SE,135,10.1,10.1,60,0.00,,---,0.00,VWS V14.01,2013-05-14 07:48:00,
2013-05-14 01:50:00,62.8,48.7,25.28,East,81,8.3,8.3,60,0.00,,---,0.00,VWS V14.01,2013-05-14 07:50:00,
2013-05-14 01:52:00,63.0,48.9,25.28,ESE,118,7.2,7.2,60,0.00,,---,0.00,VWS V14.01,2013-05-14 07:52:00,
2013-05-14 01:54:00,63.0,48.4,25.28,ESE,110,8.3,8.3,59,0.00,,---,0.00,VWS V14.01,2013-05-14 07:54:00,
2013-05-14 01:57:00,63.0,48.4,25.28,SE,141,13.2,13.2,59,0.00,,---,0.00,VWS V14.01,2013-05-14 07:57:00,
2013-05-14 01:58:00,63.0,48.4,25.28,ESE,112,5.4,13.2,59,0.00,,---,0.00,VWS V14.01,2013-05-14 07:58:00,
2013-05-14 01:59:00,63.0,48.4,25.28,ESE,111,9.6,9.6,59,0.00,,---,0.00,VWS V14.01,2013-05-14 07:59:00,
2013-05-14 02:01:00,63.1,48.1,25.28,ESE,111,9.6,9.6,58,0.00,,---,0.00,VWS V14.01,2013-05-14 08:01:00,
2013-05-14 02:06:00,63.3,48.3,25.25,ENE,68,8.1,14.5,58,0.00,,---,0.00,VWS V14.01,2013-05-14 08:06:00,
2013-05-14 02:07:00,63.3,47.8,25.25,ESE,123,15.0,15.0,57,0.00,,---,0.00,VWS V14.01,2013-05-14 08:07:00,
2013-05-14 02:08:00,63.3,47.8,25.25,ESE,115,11.0,15.0,57,0.00,,---,0.00,VWS V14.01,2013-05-14 08:08:00,
2013-05-14 02:11:00,63.3,47.8,25.25,East,85,4.9,11.0,57,0.00,,---,0.00,VWS V14.01,2013-05-14 08:11:00,
2013-05-14 02:12:00,63.5,48.0,25.25,East,85,4.9,4.9,57,0.00,,---,0.00,VWS V14.01,2013-05-14 08:12:00,
2013-05-14 02:13:00,63.5,48.0,25.25,East,85,4.9,4.9,57,0.00,,---,0.00,VWS V14.01,2013-05-14 08:13:00,
2013-05-14 02:18:00,63.5,48.0,25.25,ESE,105,10.1,10.1,57,0.00,,---,0.00,VWS V14.01,2013-05-14 08:18:00,
2013-05-14 02:19:00,63.5,48.0,25.25,SSE,165,4.9,10.1,57,0.00,,---,0.00,VWS V14.01,2013-05-14 08:19:00,
2013-05-14 02:21:00,63.3,48.3,25.25,ESE,112,5.4,5.4,58,0.00,,---,0.00,VWS V14.01,2013-05-14 08:21:00,
2013-05-14 02:22:00,63.3,48.3,25.25,ESE,103,8.1,8.1,58,0.00,,---,0.00,VWS V14.01,2013-05-14 08:22:00,
2013-05-14 02:24:00,63.3,48.8,25.25,SSE,147,2.7,8.1,59,0.00,,---,0.00,VWS V14.01,2013-05-14 08:24:00,
2013-05-14 02:25:00,63.3,48.8,25.25,SSE,147,2.7,2.7,59,0.00,,---,0.00,VWS V14.01,2013-05-14 08:25:00,
2013-05-14 02:28:00,63.1,49.0,25.25,SSE,154,3.1,3.6,60,0.00,,---,0.00,VWS V14.01,2013-05-14 08:28:00,
2013-05-14 02:30:00,63.0,49.3,25.25,SSE,154,3.1,3.1,61,0.00,,---,0.00,VWS V14.01,2013-05-14 08:30:00,
2013-05-14 02:33:00,62.8,49.6,25.25,ENE,60,5.4,5.4,62,0.00,,---,0.00,VWS V14.01,2013-05-14 08:33:00,
2013-05-14 02:34:00,62.8,49.6,25.25,ENE,60,5.4,5.4,62,0.00,,---,0.00,VWS V14.01,2013-05-14 08:34:00,
2013-05-14 02:37:00,62.8,49.6,25.25,SE,143,3.1,4.0,62,0.00,,---,0.00,VWS V14.01,2013-05-14 08:37:00,
2013-05-14 02:38:00,62.8,49.6,25.25,SSW,197,4.0,7.6,62,0.00,,---,0.00,VWS V14.01,2013-05-14 08:38:00,
2013-05-14 02:39:00,62.8,49.6,25.25,East,81,11.0,11.0,62,0.00,,---,0.00,VWS V14.01,2013-05-14 08:39:00,
2013-05-14 02:40:00,62.8,49.6,25.25,East,81,11.0,11.0,62,0.00,,---,0.00,VWS V14.01,2013-05-14 08:40:00,
2013-05-14 02:45:00,62.4,50.1,25.25,ENE,61,5.8,5.8,64,0.00,,---,0.00,VWS V14.01,2013-05-14 08:45:00,
2013-05-14 02:46:00,62.4,50.5,25.25,ENE,61,5.8,5.8,65,0.00,,---,0.00,VWS V14.01,2013-05-14 08:46:00,
2013-05-14 02:49:00,62.4,50.9,25.25,SE,124,11.0,11.0,66,0.00,,---,0.00,VWS V14.01,2013-05-14 08:49:00,
2013-05-14 02:51:00,62.4,50.9,25.25,East,97,13.2,13.2,66,0.00,,---,0.00,VWS V14.01,2013-05-14 08:51:00,
2013-05-14 02:53:00,62.4,51.3,25.25,East,97,13.2,13.2,67,0.00,,---,0.00,VWS V14.01,2013-05-14 08:53:00,
2013-05-14 02:56:00,62.4,51.7,25.25,NE,56,11.9,11.9,68,0.00,,---,0.00,VWS V14.01,2013-05-14 08:56:00,
2013-05-14 02:58:00,62.4,51.7,25.25,SE,139,8.1,8.3,68,0.00,,---,0.00,VWS V14.01,2013-05-14 08:58:00,
2013-05-14 02:59:00,62.4,51.7,25.25,SE,139,8.1,8.1,68,0.00,,---,0.00,VWS V14.01,2013-05-14 08:59:00,
2013-05-14 03:03:00,62.4,51.7,25.25,ENE,78,11.0,11.0,68,0.04,,---,0.04,VWS V14.01,2013-05-14 09:03:00,
2013-05-14 03:06:00,62.4,51.7,25.25,ESE,106,7.6,10.1,68,0.04,,---,0.04,VWS V14.01,2013-05-14 09:06:00,
2013-05-14 03:09:00,62.4,52.1,25.25,East,90,2.7,8.1,69,0.04,,---,0.04,VWS V14.01,2013-05-14 09:09:00,
2013-05-14 03:13:00,62.4,52.5,25.25,East,81,10.1,10.1,70,0.04,,---,0.04,VWS V14.01,2013-05-14 09:13:00,
2013-05-14 03:14:00,62.4,52.5,25.25,ESE,121,2.7,10.1,70,0.04,,---,0.04,VWS V14.01,2013-05-14 09:14:00,
2013-05-14 03:15:00,62.4,52.5,25.25,East,92,3.1,3.1,70,0.04,,---,0.04,VWS V14.01,2013-05-14 09:15:00,
2013-05-14 03:20:00,62.6,52.3,25.25,ESE,104,4.0,8.3,69,0.04,,---,0.04,VWS V14.01,2013-05-14 09:20:00,
2013-05-14 03:21:00,62.6,52.3,25.25,SSE,167,3.6,6.3,69,0.04,,---,0.04,VWS V14.01,2013-05-14 09:21:00,
2013-05-14 03:23:00,62.6,52.3,25.28,NE,48,5.4,5.4,69,0.04,,---,0.04,VWS V14.01,2013-05-14 09:23:00,
2013-05-14 03:24:00,62.6,52.3,25.28,NE,48,5.4,5.4,69,0.04,,---,0.04,VWS V14.01,2013-05-14 09:24:00,
2013-05-14 03:25:00,62.4,52.1,25.28,ESE,119,8.3,8.3,69,0.04,,---,0.04,VWS V14.01,2013-05-14 09:25:00,
2013-05-14 03:26:00,62.4,52.1,25.28,East,87,5.8,8.3,69,0.04,,---,0.04,VWS V14.01,2013-05-14 09:26:00,
2013-05-14 03:28:00,62.6,52.3,25.28,East,82,5.8,7.2,69,0.04,,---,0.04,VWS V14.01,2013-05-14 09:28:00,
2013-05-14 03:30:00,62.6,52.3,25.28,East,82,5.8,5.8,69,0.04,,---,0.04,VWS V14.01,2013-05-14 09:30:00,
2013-05-14 03:31:00,62.6,52.3,25.28,SSE,157,7.6,7.6,69,0.04,,---,0.04,VWS V14.01,2013-05-14 09:31:00,
2013-05-14 03:33:00,62.6,52.3,25.25,NE,44,8.1,8.1,69,0.04,,---,0.04,VWS V14.01,2013-05-14 09:33:00,
2013-05-14 03:35:00,62.6,51.9,25.25,East,79,5.4,8.1,68,0.04,,---,0.04,VWS V14.01,2013-05-14 09:35:00,
2013-05-14 03:37:00,62.6,51.9,25.25,East,96,8.3,8.3,68,0.04,,---,0.04,VWS V14.01,2013-05-14 09:37:00,
2013-05-14 03:38:00,62.6,51.9,25.25,East,96,8.3,8.3,68,0.04,,---,0.04,VWS V14.01,2013-05-14 09:38:00,
2013-05-14 03:41:00,62.6,51.9,25.25,SSE,147,7.6,10.5,68,0.04,,---,0.04,VWS V14.01,2013-05-14 09:41:00,
2013-05-14 03:43:00,62.6,51.9,25.25,ENE,75,8.3,8.3,68,0.04,,---,0.04,VWS V14.01,2013-05-14 09:43:00,
2013-05-14 03:44:00,62.6,51.9,25.25,SSE,156,5.4,8.3,68,0.04,,---,0.04,VWS V14.01,2013-05-14 09:44:00,
2013-05-14 03:45:00,62.6,51.9,25.25,SSE,156,5.4,5.4,68,0.04,,---,0.04,VWS V14.01,2013-05-14 09:45:00,
2013-05-14 03:47:00,62.6,51.9,25.28,ESE,110,11.4,11.4,68,0.04,,---,0.04,VWS V14.01,2013-05-14 09:47:00,
2013-05-14 03:48:00,62.6,51.9,25.28,ESE,110,11.4,11.4,68,0.04,,---,0.04,VWS V14.01,2013-05-14 09:48:00,
2013-05-14 03:50:00,62.8,52.1,25.28,ESE,102,8.1,12.3,68,0.04,,---,0.04,VWS V14.01,2013-05-14 09:50:00,
2013-05-14 03:51:00,62.8,52.1,25.28,ESE,119,6.3,10.1,68,0.04,,---,0.04,VWS V14.01,2013-05-14 09:51:00,
2013-05-14 03:54:00,62.8,52.1,25.28,NE,53,2.2,4.0,68,0.04,,---,0.04,VWS V14.01,2013-05-14 09:54:00,
2013-05-14 03:55:00,62.8,52.1,25.28,SSE,162,5.4,5.4,68,0.04,,---,0.04,VWS V14.01,2013-05-14 09:55:00,
2013-05-14 03:57:00,62.6,52.3,25.28,SE,130,3.1,6.3,69,0.04,,---,0.04,VWS V14.01,2013-05-14 09:57:00,
2013-05-14 03:58:00,62.6,52.3,25.28,SE,128,3.6,3.6,69,0.04,,---,0.04,VWS V14.01,2013-05-14 09:58:00,
2013-05-14 04:01:00,62.6,53.1,25.28,SSW,212,4.0,5.8,71,0.04,,---,0.04,VWS V14.01,2013-05-14 10:01:00,
2013-05-14 04:02:00,62.6,53.1,25.28,SSW,212,4.0,4.0,71,0.04,,---,0.04,VWS V14.01,2013-05-14 10:02:00,
2013-05-14 04:04:00,62.6,53.5,25.28,ESE,102,6.3,6.3,72,0.00,,---,0.04,VWS V14.01,2013-05-14 10:04:00,
2013-05-14 04:05:00,62.6,53.5,25.28,ENE,74,5.4,6.3,72,0.00,,---,0.04,VWS V14.01,2013-05-14 10:05:00,
2013-05-14 04:06:00,62.6,53.5,25.28,NE,43,3.1,5.4,72,0.00,,---,0.04,VWS V14.01,2013-05-14 10:06:00,
2013-05-14 04:08:00,62.6,53.5,25.28,SSE,149,4.9,4.9,72,0.00,,---,0.04,VWS V14.01,2013-05-14 10:08:00,
2013-05-14 04:09:00,62.6,53.5,25.28,SSE,149,4.9,4.9,72,0.00,,---,0.04,VWS V14.01,2013-05-14 10:09:00,
2013-05-14 04:10:00,62.6,53.5,25.28,ESE,120,5.4,5.4,72,0.00,,---,0.04,VWS V14.01,2013-05-14 10:10:00,
2013-05-14 04:12:00,62.6,53.5,25.28,SSE,167,4.9,4.9,72,0.00,,---,0.04,VWS V14.01,2013-05-14 10:12:00,
2013-05-14 04:15:00,62.8,53.6,25.28,ESE,113,5.4,11.0,72,0.00,,---,0.04,VWS V14.01,2013-05-14 10:15:00,
2013-05-14 04:18:00,62.8,53.6,25.28,ESE,110,5.8,11.0,72,0.00,,---,0.04,VWS V14.01,2013-05-14 10:18:00,
2013-05-14 04:20:00,62.8,53.6,25.28,ESE,104,5.4,5.4,72,0.00,,---,0.04,VWS V14.01,2013-05-14 10:20:00,
2013-05-14 04:21:00,62.8,53.6,25.28,ESE,104,5.4,5.4,72,0.00,,---,0.04,VWS V14.01,2013-05-14 10:21:00,
2013-05-14 04:24:00,62.8,53.6,25.28,NNE,29,8.3,8.3,72,0.00,,---,0.04,VWS V14.01,2013-05-14 10:24:00,
2013-05-14 04:26:00,62.8,53.6,25.28,NNE,29,8.3,8.3,72,0.00,,---,0.04,VWS V14.01,2013-05-14 10:26:00,
2013-05-14 04:27:00,62.8,53.6,25.28,ESE,110,3.1,8.3,72,0.00,,---,0.04,VWS V14.01,2013-05-14 10:27:00,
2013-05-14 04:28:00,62.8,53.6,25.28,East,79,5.8,5.8,72,0.00,,---,0.04,VWS V14.01,2013-05-14 10:28:00,
2013-05-14 04:29:00,62.6,53.8,25.28,East,79,5.8,5.8,73,0.00,,---,0.04,VWS V14.01,2013-05-14 10:29:00,
2013-05-14 04:31:00,62.6,53.8,25.28,East,82,5.4,9.6,73,0.00,,---,0.04,VWS V14.01,2013-05-14 10:31:00,
2013-05-14 04:33:00,62.6,53.8,25.25,SSE,164,5.4,7.6,73,0.00,,---,0.04,VWS V14.01,2013-05-14 10:33:00,
2013-05-14 04:34:00,62.6,53.8,25.25,ESE,115,8.7,10.1,73,0.00,,---,0.04,VWS V14.01,2013-05-14 10:34:00,
2013-05-14 04:36:00,62.6,53.8,25.25,ESE,115,8.7,8.7,73,0.00,,---,0.04,VWS V14.01,2013-05-14 10:36:00,
2013-05-14 04:38:00,62.4,54.0,25.25,SSE,151,9.6,9.6,74,0.00,,---,0.04,VWS V14.01,2013-05-14 10:38:00,
2013-05-14 04:40:00,62.4,54.0,25.25,East,81,6.3,7.6,74,0.00,,---,0.04,VWS V14.01,2013-05-14 10:40:00,
2013-05-14 04:42:00,62.4,54.0,25.25,SE,129,6.3,6.3,74,0.00,,---,0.04,VWS V14.01,2013-05-14 10:42:00,
2013-05-14 04:43:00,62.4,53.7,25.25,ESE,109,12.3,12.3,73,0.00,,---,0.04,VWS V14.01,2013-05-14 10:43:00,
2013-05-14 04:44:00,62.4,53.7,25.25,East,88,8.3,13.2,73,0.00,,---,0.04,VWS V14.01,2013-05-14 10:44:00,
2013-05-14 04:45:00,62.4,53.7,25.25,East,88,8.3,8.3,73,0.00,,---,0.04,VWS V14.01,2013-05-14 10:45:00,
2013-05-14 04:46:00,62.4,53.7,25.25,East,88,8.3,8.3,73,0.00,,---,0.04,VWS V14.01,2013-05-14 10:46:00,
2013-05-14 04:49:00,62.6,53.5,25.25,ESE,102,3.1,8.3,72,0.00,,---,0.04,VWS V14.01,2013-05-14 10:49:00,
2013-05-14 04:50:00,62.6,53.5,25.25,ENE,62,7.2,7.2,72,0.00,,---,0.04,VWS V14.01,2013-05-14 10:50:00,
2013-05-14 04:52:00,62.6,53.5,25.25,ESE,104,4.9,4.9,72,0.00,,---,0.04,VWS V14.01,2013-05-14 10:52:00,
2013-05-14 04:54:00,62.6,53.5,25.25,SSE,157,10.1,10.1,72,0.00,,---,0.04,VWS V14.01,2013-05-14 10:54:00,
2013-05-14 04:55:00,62.6,53.1,25.25,SE,128,5.8,10.1,71,0.00,,---,0.04,VWS V14.01,2013-05-14 10:55:00,
2013-05-14 04:56:00,62.6,53.1,25.25,SSE,168,4.0,5.8,71,0.00,,---,0.04,VWS V14.01,2013-05-14 10:56:00,
2013-05-14 05:00:00,62.6,53.1,25.25,SE,145,4.0,10.1,71,0.00,,---,0.04,VWS V14.01,2013-05-14 11:00:00,
2013-05-14 05:01:00,62.6,53.1,25.25,East,96,10.1,10.1,71,0.00,,---,0.04,VWS V14.01,2013-05-14 11:01:00,
2013-05-14 05:04:00,62.6,53.1,25.25,ENE,77,3.6,7.6,71,0.00,,---,0.04,VWS V14.01,2013-05-14 11:04:00,
2013-05-14 05:05:00,62.6,53.1,25.25,ENE,77,3.6,3.6,71,0.00,,---,0.04,VWS V14.01,2013-05-14 11:05:00,
2013-05-14 05:07:00,62.6,53.5,25.25,ESE,109,5.8,5.8,72,0.00,,---,0.04,VWS V14.01,2013-05-14 11:07:00,
2013-05-14 05:09:00,62.6,53.5,25.25,ESE,109,5.8,5.8,72,0.00,,---,0.04,VWS V14.01,2013-05-14 11:09:00,
2013-05-14 05:11:00,62.6,53.5,25.25,East,85,3.1,8.7,72,0.00,,---,0.04,VWS V14.01,2013-05-14 11:11:00,
2013-05-14 05:12:00,62.6,53.5,25.25,East,85,3.1,3.1,72,0.00,,---,0.04,VWS V14.01,2013-05-14 11:12:00,
2013-05-14 05:16:00,62.4,53.3,25.25,ESE,105,3.1,5.8,72,0.00,,---,0.04,VWS V14.01,2013-05-14 11:16:00,
2013-05-14 05:18:00,62.4,53.3,25.25,ESE,117,7.6,8.1,72,0.00,,---,0.04,VWS V14.01,2013-05-14 11:18:00,
2013-05-14 05:19:00,62.4,53.3,25.25,East,85,3.6,7.6,72,0.00,,---,0.04,VWS V14.01,2013-05-14 11:19:00,
2013-05-14 05:22:00,62.6,53.1,25.25,East,87,3.6,3.6,71,0.00,,---,0.04,VWS V14.01,2013-05-14 11:22:00,
2013-05-14 05:23:00,62.6,53.1,25.25,East,87,3.6,3.6,71,0.00,,---,0.04,VWS V14.01,2013-05-14 11:23:00,
2013-05-14 05:25:00,62.6,53.1,25.25,ESE,108,9.2,9.2,71,0.00,,---,0.04,VWS V14.01,2013-05-14 11:25:00,
2013-05-14 05:30:00,62.6,53.1,25.25,ESE,109,7.2,7.2,71,0.00,,---,0.04,VWS V14.01,2013-05-14 11:30:00,
2013-05-14 05:31:00,62.6,53.1,25.25,SE,146,5.4,7.2,71,0.00,,---,0.04,VWS V14.01,2013-05-14 11:31:00,
2013-05-14 05:32:00,62.6,53.1,25.25,SE,139,13.2,15.4,71,0.00,,---,0.04,VWS V14.01,2013-05-14 11:32:00,
2013-05-14 05:33:00,62.6,53.1,25.25,SE,145,5.4,13.2,71,0.00,,---,0.04,VWS V14.01,2013-05-14 11:33:00,
2013-05-14 05:36:00,62.6,53.5,25.28,SSE,165,7.2,7.2,72,0.00,,---,0.04,VWS V14.01,2013-05-14 11:36:00,
2013-05-14 05:37:00,62.6,53.5,25.28,East,91,7.6,8.1,72,0.00,,---,0.04,VWS V14.01,2013-05-14 11:37:00,
2013-05-14 05:40:00,62.6,53.1,25.28,ESE,113,8.1,8.1,71,0.00,,---,0.04,VWS V14.01,2013-05-14 11:40:00,
2013-05-14 05:41:00,62.6,53.1,25.28,ESE,113,8.1,8.1,71,0.00,,---,0.04,VWS V14.01,2013-05-14 11:41:00,
2013-05-14 05:43:00,62.6,53.1,25.28,SSE,157,8.1,10.1,71,0.00,,---,0.04,VWS V14.01,2013-05-14 11:43:00,
2013-05-14 05:48:00,62.6,53.1,25.28,ESE,102,4.9,8.7,71,0.00,,---,0.04,VWS V14.01,2013-05-14 11:48:00,
2013-05-14 05:50:00,62.6,53.1,25.28,ESE,122,4.9,5.4,71,0.00,,---,0.04,VWS V14.01,2013-05-14 11:50:00,
2013-05-14 05:52:00,62.6,53.1,25.28,ESE,117,6.3,6.3,71,0.00,,---,0.04,VWS V14.01,2013-05-14 11:52:00,
2013-05-14 05:54:00,62.6,53.1,25.28,ESE,108,2.7,2.7,71,0.00,,---,0.04,VWS V14.01,2013-05-14 11:54:00,
2013-05-14 05:55:00,62.6,53.1,25.28,ESE,108,2.7,2.7,71,0.00,,---,0.04,VWS V14.01,2013-05-14 11:55:00,
2013-05-14 05:57:00,62.6,53.1,25.28,SE,137,7.6,8.1,71,0.00,,---,0.04,VWS V14.01,2013-05-14 11:57:00,
2013-05-14 05:59:00,62.6,52.7,25.28,ESE,110,8.3,8.3,70,0.00,,---,0.04,VWS V14.01,2013-05-14 11:59:00,
2013-05-14 06:02:00,62.6,53.1,25.28,ESE,117,5.4,8.3,71,0.00,,---,0.04,VWS V14.01,2013-05-14 12:02:00,
2013-05-14 06:03:00,62.6,53.1,25.28,ESE,115,6.3,6.3,71,0.00,,---,0.04,VWS V14.01,2013-05-14 12:03:00,
2013-05-14 06:05:00,62.6,52.7,25.28,ESE,116,5.4,11.0,70,0.00,,---,0.04,VWS V14.01,2013-05-14 12:05:00,
2013-05-14 06:07:00,62.6,52.7,25.28,ESE,104,8.3,8.3,70,0.00,,---,0.04,VWS V14.01,2013-05-14 12:07:00,
2013-05-14 06:10:00,62.6,52.7,25.28,ESE,108,8.1,8.1,70,0.00,,---,0.04,VWS V14.01,2013-05-14 12:10:00,
2013-05-14 06:12:00,62.6,52.7,25.28,ESE,123,3.6,3.6,70,0.00,,---,0.04,VWS V14.01,2013-05-14 12:12:00,
2013-05-14 06:13:00,62.8,52.9,25.28,ESE,123,3.6,3.6,70,0.00,,---,0.04,VWS V14.01,2013-05-14 12:13:00,
2013-05-14 06:14:00,62.8,52.9,25.28,SE,124,3.1,3.6,70,0.00,,---,0.04,VWS V14.01,2013-05-14 12:14:00,
2013-05-14 06:15:00,63.0,53.4,25.28,ESE,115,3.6,5.4,71,0.00,,---,0.04,VWS V14.01,2013-05-14 12:15:00,
2013-05-14 06:17:00,63.0,53.4,25.28,ENE,76,4.9,4.9,71,0.00,,---,0.04,VWS V14.01,2013-05-14 12:17:00,
2013-05-14 06:18:00,63.0,53.0,25.28,ESE,111,8.1,8.1,70,0.00,,---,0.04,VWS V14.01,2013-05-14 12:18:00,
2013-05-14 06:19:00,63.0,53.0,25.28,SSW,211,5.8,8.1,70,0.00,,---,0.04,VWS V14.01,2013-05-14 12:19:00,
2013-05-14 06:23:00,63.0,53.0,25.28,ENE,75,2.2,2.7,70,0.00,,---,0.04,VWS V14.01,2013-05-14 12:23:00,
2013-05-14 06:25:00,63.3,51.0,25.28,East,81,5.4,8.3,64,0.00,,---,0.04,VWS V14.01,2013-05-14 12:25:00,
2013-05-14 06:26:00,63.5,51.1,25.28,SSE,157,4.0,5.4,64,0.00,,---,0.04,VWS V14.01,2013-05-14 12:26:00,
2013-05-14 06:27:00,63.5,51.1,25.28,SSE,157,4.0,4.0,64,0.00,,---,0.04,VWS V14.01,2013-05-14 12:27:00,
2013-05-14 06:29:00,63.7,50.9,25.28,ENE,71,3.6,3.6,63,0.00,,---,0.04,VWS V14.01,2013-05-14 12:29:00,
2013-05-14 06:32:00,63.9,50.6,25.28,SE,146,4.9,4.9,62,0.00,,---,0.04,VWS V14.01,2013-05-14 12:32:00,
2013-05-14 06:33:00,63.9,50.6,25.28,ESE,115,3.6,4.9,62,0.00,,---,0.04,VWS V14.01,2013-05-14 12:33:00,
2013-05-14 06:35:00,63.9,50.6,25.28,ESE,115,3.6,3.6,62,0.00,,---,0.04,VWS V14.01,2013-05-14 12:35:00,
2013-05-14 06:37:00,64.0,49.9,25.28,ESE,103,5.8,5.8,60,0.00,,---,0.04,VWS V14.01,2013-05-14 12:37:00,
2013-05-14 06:39:00,64.0,49.9,25.28,SE,131,5.8,6.3,60,0.00,,---,0.04,VWS V14.01,2013-05-14 12:39:00,
2013-05-14 06:40:00,64.0,49.9,25.28,ESE,119,5.4,11.0,60,0.00,,---,0.04,VWS V14.01,2013-05-14 12:40:00,
2013-05-14 06:41:00,64.0,49.9,25.28,ESE,119,5.4,5.4,60,0.00,,---,0.04,VWS V14.01,2013-05-14 12:41:00,
2013-05-14 06:42:00,64.0,49.4,25.28,ESE,119,5.4,5.4,59,0.00,,---,0.04,VWS V14.01,2013-05-14 12:42:00,
2013-05-14 06:46:00,64.0,49.4,25.28,NNE,15,9.2,9.2,59,0.00,,---,0.04,VWS V14.01,2013-05-14 12:46:00,
2013-05-14 06:48:00,63.9,49.7,25.28,ESE,120,11.4,11.4,60,0.00,,---,0.04,VWS V14.01,2013-05-14 12:48:00,
2013-05-14 06:52:00,63.9,48.8,25.28,East,84,5.8,11.4,58,0.00,,---,0.04,VWS V14.01,2013-05-14 12:52:00,
2013-05-14 06:53:00,63.9,48.8,25.28,SSE,151,10.1,10.1,58,0.00,,---,0.04,VWS V14.01,2013-05-14 12:53:00,
2013-05-14 06:54:00,63.9,49.3,25.28,East,92,8.1,10.1,59,0.00,,---,0.04,VWS V14.01,2013-05-14 12:54:00,
2013-05-14 06:57:00,64.0,49.4,25.28,ESE,123,10.1,10.1,59,0.00,,---,0.04,VWS V14.01,2013-05-14 12:57:00,
2013-05-14 06:58:00,64.0,49.4,25.28,SSE,154,8.1,10.1,59,0.00,,---,0.04,VWS V14.01,2013-05-14 12:58:00,
2013-05-14 07:03:00,64.0,49.4,25.28,ESE,116,5.4,5.4,59,0.00,,---,0.04,VWS V14.01,2013-05-14 13:03:00,
2013-05-14 07:04:00,64.0,49.4,25.28,ESE,116,5.4,5.4,59,0.00,,---,0.04,VWS V14.01,2013-05-14 13:04:00,
2013-05-14 07:06:00,64.9,46.9,25.28,East,92,4.9,5.8,52,0.00,,---,0.04,VWS V14.01,2013-05-14 13:06:00,
2013-05-14 07:08:00,65.1,47.1,25.28,ESE,114,7.6,7.6,52,0.00,,---,0.04,VWS V14.01,2013-05-14 13:08:00,
2013-05-14 07:10:00,65.1,47.1,25.28,NNE,31,7.6,7.6,52,0.00,,---,0.04,VWS V14.01,2013-05-14 13:10:00,
2013-05-14 07:12:00,65.3,46.7,25.28,NNE,16,3.6,9.2,51,0.00,,---,0.04,VWS V14.01,2013-05-14 13:12:00,
2013-05-14 07:13:00,65.3,46.7,25.28,NNE,16,3.6,3.6,51,0.00,,---,0.04,VWS V14.01,2013-05-14 13:13:00,
2013-05-14 07:14:00,65.3,46.7,25.28,ESE,112,7.2,8.1,51,0.00,,---,0.04,VWS V14.01,2013-05-14 13:14:00,
2013-05-14 07:15:00,65.5,48.4,25.28,ESE,112,7.2,7.2,54,0.00,,---,0.04,VWS V14.01,2013-05-14 13:15:00,
2013-05-14 07:18:00,65.5,48.4,25.28,NE,56,7.2,7.2,54,0.00,,---,0.04,VWS V14.01,2013-05-14 13:18:00,
2013-05-14 07:20:00,65.7,46.5,25.28,NE,56,7.2,7.2,50,0.00,,---,0.04,VWS V14.01,2013-05-14 13:20:00,
2013-05-14 07:23:00,65.7,46.5,25.28,East,91,7.2,13.2,50,0.00,,---,0.04,VWS V14.01,2013-05-14 13:23:00,
2013-05-14 07:24:00,65.7,46.5,25.28,East,101,5.8,7.2,50,0.00,,---,0.04,VWS V14.01,2013-05-14 13:24:00,
2013-05-14 07:26:00,65.7,46.5,25.28,East,86,7.2,10.1,50,0.00,,---,0.04,VWS V14.01,2013-05-14 13:26:00,
2013-05-14 07:30:00,66.6,47.4,25.28,East,92,4.0,5.4,50,0.00,,---,0.04,VWS V14.01,2013-05-14 13:30:00,
2013-05-14 07:31:00,66.6,47.4,25.28,ENE,68,10.1,10.1,50,0.00,,---,0.04,VWS V14.01,2013-05-14 13:31:00,
2013-05-14 07:32:00,66.6,47.4,25.28,ESE,110,8.7,10.1,50,0.00,,---,0.04,VWS V14.01,2013-05-14 13:32:00,
2013-05-14 07:33:00,66.7,47.5,25.28,ESE,110,8.7,8.7,50,0.00,,---,0.04,VWS V14.01,2013-05-14 13:33:00,
2013-05-14 07:37:00,67.1,46.8,25.28,ENE,72,5.8,10.5,48,0.00,,---,0.04,VWS V14.01,2013-05-14 13:37:00,
2013-05-14 07:38:00,67.1,46.8,25.28,SE,129,8.3,10.1,48,0.00,,---,0.04,VWS V14.01,2013-05-14 13:38:00,
2013-05-14 07:40:00,67.1,47.3,25.28,East,97,6.3,6.3,49,0.00,,---,0.04,VWS V14.01,2013-05-14 13:40:00,
2013-05-14 07:42:00,67.1,47.3,25.28,East,92,6.3,6.3,49,0.00,,---,0.04,VWS V14.01,2013-05-14 13:42:00,
2013-05-14 07:44:00,67.1,47.3,25.28,ESE,108,8.3,8.3,49,0.00,,---,0.04,VWS V14.01,2013-05-14 13:44:00,
2013-05-14 07:45:00,67.3,46.9,25.28,NE,38,5.8,8.3,48,0.00,,---,0.04,VWS V14.01,2013-05-14 13:45:00,
2013-05-14 07:48:00,67.3,46.4,25.28,ENE,78,10.1,12.8,47,0.00,,---,0.04,VWS V14.01,2013-05-14 13:48:00,
2013-05-14 07:50:00,67.5,47.1,25.31,ENE,78,10.1,10.1,48,0.00,,---,0.04,VWS V14.01,2013-05-14 13:50:00,
2013-05-14 07:52:00,67.5,47.1,25.31,NE,39,3.1,8.3,48,0.00,,---,0.04,VWS V14.01,2013-05-14 13:52:00,
2013-05-14 07:53:00,67.5,47.1,25.31,East,92,4.0,5.8,48,0.00,,---,0.04,VWS V14.01,2013-05-14 13:53:00,
2013-05-14 07:54:00,67.5,47.1,25.31,East,92,4.0,4.0,48,0.00,,---,0.04,VWS V14.01,2013-05-14 13:54:00,
2013-05-14 07:56:00,67.6,47.3,25.31,ESE,104,9.2,9.2,48,0.00,,---,0.04,VWS V14.01,2013-05-14 13:56:00,
2013-05-14 07:59:00,67.6,46.7,25.31,ESE,102,5.8,5.8,47,0.00,,---,0.04,VWS V14.01,2013-05-14 13:59:00,
2013-05-14 08:00:00,67.6,47.3,25.31,East,95,3.6,5.8,48,0.00,,---,0.04,VWS V14.01,2013-05-14 14:00:00,
2013-05-14 08:01:00,67.8,46.3,25.31,East,94,8.7,8.7,46,0.00,,---,0.04,VWS V14.01,2013-05-14 14:01:00,
2013-05-14 08:05:00,67.8,46.3,25.31,SE,124,10.1,10.1,46,0.00,,---,0.04,VWS V14.01,2013-05-14 14:05:00,
2013-05-14 08:06:00,67.6,46.1,25.31,ENE,76,8.1,10.1,46,0.00,,---,0.04,VWS V14.01,2013-05-14 14:06:00,
2013-05-14 08:09:00,67.6,46.1,25.31,ESE,102,4.0,5.8,46,0.00,,---,0.04,VWS V14.01,2013-05-14 14:09:00,
2013-05-14 08:11:00,67.6,46.1,25.31,NE,48,7.6,14.5,46,0.00,,---,0.04,VWS V14.01,2013-05-14 14:11:00,
2013-05-14 08:12:00,67.6,46.1,25.31,NE,48,7.6,7.6,46,0.00,,---,0.04,VWS V14.01,2013-05-14 14:12:00,
2013-05-14 08:13:00,67.6,46.1,25.31,SE,130,11.0,14.1,46,0.00,,---,0.04,VWS V14.01,2013-05-14 14:13:00,
2013-05-14 08:15:00,67.1,45.1,25.31,ESE,120,10.1,10.1,45,0.00,,---,0.04,VWS V14.01,2013-05-14 14:15:00,
2013-05-14 08:16:00,67.1,45.1,25.31,ESE,120,10.1,10.1,45,0.00,,---,0.04,VWS V14.01,2013-05-14 14:16:00,
2013-05-14 08:18:00,67.1,46.2,25.31,South,179,8.1,8.1,47,0.00,,---,0.04,VWS V14.01,2013-05-14 14:18:00,
2013-05-14 08:22:00,66.9,46.0,25.31,SSE,154,7.6,10.1,47,0.00,,---,0.04,VWS V14.01,2013-05-14 14:22:00,
2013-05-14 08:23:00,66.9,46.0,25.31,SSE,164,8.7,8.7,47,0.00,,---,0.04,VWS V14.01,2013-05-14 14:23:00,
2013-05-14 08:25:00,66.9,47.2,25.31,East,92,12.8,12.8,49,0.00,,---,0.04,VWS V14.01,2013-05-14 14:25:00,
2013-05-14 08:26:00,66.9,47.2,25.31,East,87,14.5,14.5,49,0.00,,---,0.04,VWS V14.01,2013-05-14 14:26:00,
2013-05-14 08:27:00,66.9,47.2,25.31,SE,131,5.4,14.5,49,0.00,,---,0.04,VWS V14.01,2013-05-14 14:27:00,
2013-05-14 08:28:00,66.9,47.2,25.31,SSE,154,8.7,8.7,49,0.00,,---,0.04,VWS V14.01,2013-05-14 14:28:00,
2013-05-14 08:29:00,66.9,47.2,25.31,ESE,122,10.5,10.5,49,0.00,,---,0.04,VWS V14.01,2013-05-14 14:29:00,
2013-05-14 08:31:00,66.9,47.2,25.31,NE,49,6.3,6.3,49,0.00,,---,0.04,VWS V14.01,2013-05-14 14:31:00,
2013-05-14 08:33:00,67.5,47.1,25.31,North,8,6.3,6.3,48,0.00,,---,0.04,VWS V14.01,2013-05-14 14:33:00,
2013-05-14 08:34:00,67.5,47.1,25.31,North,8,6.3,6.3,48,0.00,,---,0.04,VWS V14.01,2013-05-14 14:34:00,
2013-05-14 08:35:00,67.8,48.0,25.31,East,92,3.1,6.3,49,0.00,,---,0.04,VWS V14.01,2013-05-14 14:35:00,
2013-05-14 08:37:00,68.2,47.2,25.31,ESE,105,6.7,6.7,47,0.00,,---,0.04,VWS V14.01,2013-05-14 14:37:00,
2013-05-14 08:39:00,68.4,46.8,25.31,ESE,110,9.6,9.6,46,0.00,,---,0.04,VWS V14.01,2013-05-14 14:39:00,
2013-05-14 08:40:00,68.7,47.1,25.31,SE,133,8.3,9.6,46,0.00,,---,0.04,VWS V14.01,2013-05-14 14:40:00,
2013-05-14 08:41:00,68.7,47.1,25.31,SE,133,8.3,8.3,46,0.00,,---,0.04,VWS V14.01,2013-05-14 14:41:00,
2013-05-14 08:45:00,68.7,46.5,25.31,ESE,117,8.1,8.1,45,0.00,,---,0.04,VWS V14.01,2013-05-14 14:45:00,
2013-05-14 08:47:00,68.9,46.7,25.31,ESE,109,8.1,8.1,45,0.00,,---,0.04,VWS V14.01,2013-05-14 14:47:00,
2013-05-14 08:48:00,69.1,46.9,25.31,ESE,109,4.9,10.1,45,0.00,,---,0.04,VWS V14.01,2013-05-14 14:48:00,
2013-05-14 08:49:00,69.1,46.9,25.31,ESE,109,4.9,4.9,45,0.00,,---,0.04,VWS V14.01,2013-05-14 14:49:00,
2013-05-14 08:50:00,69.1,46.9,25.31,ESE,109,4.9,4.9,45,0.00,,---,0.04,VWS V14.01,2013-05-14 14:50:00,
2013-05-14 08:51:00,69.1,46.9,25.31,NE,51,5.8,5.8,45,0.00,,---,0.04,VWS V14.01,2013-05-14 14:51:00,
2013-05-14 08:54:00,69.1,46.9,25.31,NE,55,10.1,10.1,45,0.00,,---,0.04,VWS V14.01,2013-05-14 14:54:00,
2013-05-14 08:57:00,68.4,47.4,25.31,NE,51,7.6,7.6,47,0.00,,---,0.04,VWS V14.01,2013-05-14 14:57:00,
2013-05-14 08:59:00,68.4,47.4,25.31,East,80,10.5,10.5,47,0.00,,---,0.04,VWS V14.01,2013-05-14 14:59:00,
2013-05-14 09:00:00,68.4,47.4,25.31,East,80,10.5,10.5,47,0.00,,---,0.04,VWS V14.01,2013-05-14 15:00:00,
2013-05-14 09:04:00,68.0,47.0,25.31,ESE,110,5.8,8.7,47,0.00,,---,0.04,VWS V14.01,2013-05-14 15:04:00,
2013-05-14 09:06:00,68.0,47.0,25.31,SE,125,6.3,10.1,47,0.00,,---,0.04,VWS V14.01,2013-05-14 15:06:00,
2013-05-14 09:07:00,68.4,47.4,25.31,SE,125,6.3,6.3,47,0.00,,---,0.04,VWS V14.01,2013-05-14 15:07:00,
2013-05-14 09:09:00,68.7,48.3,25.31,East,96,5.8,5.8,48,0.00,,---,0.04,VWS V14.01,2013-05-14 15:09:00,
2013-05-14 09:11:00,68.9,47.3,25.31,North,0,3.6,6.3,46,0.00,,---,0.04,VWS V14.01,2013-05-14 15:11:00,
2013-05-14 09:12:00,69.1,48.0,25.31,East,90,8.1,8.1,47,0.00,,---,0.04,VWS V14.01,2013-05-14 15:12:00,
2013-05-14 09:15:00,69.1,49.7,25.31,NE,34,8.7,8.7,50,0.00,,---,0.04,VWS V14.01,2013-05-14 15:15:00,
2013-05-14 09:16:00,69.1,49.7,25.31,East,92,8.1,8.7,50,0.00,,---,0.04,VWS V14.01,2013-05-14 15:16:00,
2013-05-14 09:18:00,68.9,49.0,25.31,NE,41,9.6,9.6,49,0.00,,---,0.04,VWS V14.01,2013-05-14 15:18:00,
2013-05-14 09:21:00,68.9,49.0,25.31,East,97,6.3,11.0,49,0.00,,---,0.04,VWS V14.01,2013-05-14 15:21:00,
2013-05-14 09:22:00,68.9,49.0,25.31,SE,131,8.1,8.1,49,0.00,,---,0.04,VWS V14.01,2013-05-14 15:22:00,
2013-05-14 09:25:00,68.5,47.5,25.31,ENE,66,16.8,16.8,47,0.00,,---,0.04,VWS V14.01,2013-05-14 15:25:00,
2013-05-14 09:26:00,68.5,47.5,25.31,East,88,11.4,16.8,47,0.00,,---,0.04,VWS V14.01,2013-05-14 15:26:00,
2013-05-14 09:28:00,68.5,47.5,25.31,East,92,7.6,7.6,47,0.00,,---,0.04,VWS V14.01,2013-05-14 15:28:00,
2013-05-14 09:30:00,68.7,47.1,25.31,ENE,63,8.3,10.5,46,0.00,,---,0.04,VWS V14.01,2013-05-14 15:30:00,
2013-05-14 09:32:00,68.7,47.1,25.31,ESE,109,13.2,13.2,46,0.00,,---,0.04,VWS V14.01,2013-05-14 15:32:00,
2013-05-14 09:36:00,68.2,47.8,25.31,SE,129,8.1,8.3,48,0.00,,---,0.04,VWS V14.01,2013-05-14 15:36:00,
2013-05-14 09:38:00,68.2,47.8,25.31,SE,126,8.1,8.3,48,0.00,,---,0.04,VWS V14.01,2013-05-14 15:38:00,
2013-05-14 09:39:00,68.2,47.8,25.31,SE,126,8.1,8.1,48,0.00,,---,0.04,VWS V14.01,2013-05-14 15:39:00,
2013-05-14 09:41:00,68.2,47.8,25.31,SSE,161,8.7,8.7,48,0.00,,---,0.04,VWS V14.01,2013-05-14 15:41:00,
2013-05-14 09:42:00,68.2,47.8,25.31,SSE,161,8.7,8.7,48,0.00,,---,0.04,VWS V14.01,2013-05-14 15:42:00,
2013-05-14 09:47:00,67.3,48.0,25.31,SE,143,5.4,17.4,50,0.00,,---,0.04,VWS V14.01,2013-05-14 15:47:00,
2013-05-14 09:48:00,67.3,48.0,25.31,East,89,14.1,14.1,50,0.00,,---,0.04,VWS V14.01,2013-05-14 15:48:00,
2013-05-14 09:49:00,67.3,48.0,25.31,East,89,14.1,14.1,50,0.00,,---,0.04,VWS V14.01,2013-05-14 15:49:00,
2013-05-14 09:50:00,67.1,47.9,25.31,East,89,14.1,14.1,50,0.00,,---,0.04,VWS V14.01,2013-05-14 15:50:00,
2013-05-14 09:52:00,67.1,47.9,25.31,SSE,168,6.3,8.1,50,0.00,,---,0.04,VWS V14.01,2013-05-14 15:52:00,
2013-05-14 09:56:00,67.5,48.2,25.31,East,82,5.8,5.8,50,0.00,,---,0.04,VWS V14.01,2013-05-14 15:56:00,
2013-05-14 09:58:00,67.5,48.2,25.31,SSE,156,10.1,10.1,50,0.00,,---,0.04,VWS V14.01,2013-05-14 15:58:00,
2013-05-14 09:59:00,67.5,48.2,25.31,SSE,159,11.9,11.9,50,0.00,,---,0.04,VWS V14.01,2013-05-14 15:59:00,
2013-05-14 10:01:00,67.5,48.2,25.31,NE,53,3.1,3.1,50,0.00,,---,0.04,VWS V14.01,2013-05-14 16:01:00,
2013-05-14 10:02:00,68.4,48.5,25.31,ESE,116,3.1,4.0,49,0.00,,---,0.04,VWS V14.01,2013-05-14 16:02:00,
2013-05-14 10:03:00,68.4,48.5,25.31,ESE,116,3.1,3.1,49,0.00,,---,0.04,VWS V14.01,2013-05-14 16:03:00,
2013-05-14 10:07:00,68.4,48.5,25.31,East,90,10.1,15.4,49,0.00,,---,0.04,VWS V14.01,2013-05-14 16:07:00,
2013-05-14 10:08:00,68.4,48.5,25.31,ENE,78,6.3,10.1,49,0.00,,---,0.04,VWS V14.01,2013-05-14 16:08:00,
2013-05-14 10:10:00,70.2,47.8,25.31,ESE,114,6.3,11.0,45,0.00,,---,0.04,VWS V14.01,2013-05-14 16:10:00,
2013-05-14 10:11:00,70.2,47.8,25.31,ESE,114,6.3,6.3,45,0.00,,---,0.04,VWS V14.01,2013-05-14 16:11:00,
2013-05-14 10:15:00,70.3,46.8,25.31,East,90,10.5,10.5,43,0.00,,---,0.04,VWS V14.01,2013-05-14 16:15:00,
2013-05-14 10:16:00,70.3,46.8,25.31,East,90,10.5,10.5,43,0.00,,---,0.04,VWS V14.01,2013-05-14 16:16:00,
2013-05-14 10:18:00,70.3,46.8,25.31,East,88,11.0,11.0,43,0.00,,---,0.04,VWS V14.01,2013-05-14 16:18:00,
2013-05-14 10:19:00,70.3,46.8,25.31,ESE,116,8.1,11.0,43,0.00,,---,0.04,VWS V14.01,2013-05-14 16:19:00,
2013-05-14 10:21:00,69.8,46.9,25.31,North,0,2.2,7.6,44,0.00,,---,0.04,VWS V14.01,2013-05-14 16:21:00,
2013-05-14 10:24:00,69.8,46.9,25.31,SE,138,3.1,5.4,44,0.00,,---,0.04,VWS V14.01,2013-05-14 16:24:00,
2013-05-14 10:26:00,69.8,46.9,25.31,SSE,163,12.8,12.8,44,0.00,,---,0.04,VWS V14.01,2013-05-14 16:26:00,
2013-05-14 10:27:00,69.8,46.9,25.31,SSE,163,12.8,12.8,44,0.00,,---,0.04,VWS V14.01,2013-05-14 16:27:00,
2013-05-14 10:30:00,69.6,47.4,25.31,SE,140,8.7,8.7,45,0.00,,---,0.04,VWS V14.01,2013-05-14 16:30:00,
2013-05-14 10:33:00,69.4,46.6,25.31,East,91,5.4,5.4,44,0.00,,---,0.04,VWS V14.01,2013-05-14 16:33:00,
2013-05-14 10:34:00,69.4,46.6,25.31,SE,135,11.0,11.0,44,0.00,,---,0.04,VWS V14.01,2013-05-14 16:34:00,
2013-05-14 10:35:00,69.4,46.6,25.31,West,260,6.3,11.0,44,0.00,,---,0.04,VWS V14.01,2013-05-14 16:35:00,
2013-05-14 10:36:00,69.4,47.2,25.31,SE,133,5.4,6.3,45,0.00,,---,0.04,VWS V14.01,2013-05-14 16:36:00,
2013-05-14 10:40:00,69.6,47.4,25.31,ENE,78,5.8,12.8,45,0.00,,---,0.04,VWS V14.01,2013-05-14 16:40:00,
2013-05-14 10:42:00,69.6,47.4,25.31,East,92,11.0,12.8,45,0.00,,---,0.04,VWS V14.01,2013-05-14 16:42:00,
2013-05-14 10:44:00,69.6,47.4,25.31,NE,54,6.3,8.3,45,0.00,,---,0.04,VWS V14.01,2013-05-14 16:44:00,
2013-05-14 10:47:00,69.6,47.4,25.31,South,175,5.4,5.4,45,0.00,,---,0.04,VWS V14.01,2013-05-14 16:47:00,
2013-05-14 10:50:00,69.6,47.4,25.31,ENE,73,3.6,5.4,45,0.00,,---,0.04,VWS V14.01,2013-05-14 16:50:00,
2013-05-14 10:51:00,69.6,47.4,25.31,ENE,73,3.6,3.6,45,0.00,,---,0.04,VWS V14.01,2013-05-14 16:51:00,
2013-05-14 10:52:00,69.6,47.4,25.31,East,96,6.3,6.3,45,0.00,,---,0.04,VWS V14.01,2013-05-14 16:52:00,
2013-05-14 10:55:00,71.4,47.2,25.31,SE,136,3.1,7.6,42,0.00,,---,0.04,VWS V14.01,2013-05-14 16:55:00,
2013-05-14 10:56:00,71.4,47.2,25.31,ENE,77,3.6,3.6,42,0.00,,---,0.04,VWS V14.01,2013-05-14 16:56:00,
2013-05-14 10:57:00,71.4,47.2,25.31,SE,127,11.0,11.0,42,0.00,,---,0.04,VWS V14.01,2013-05-14 16:57:00,
2013-05-14 11:00:00,71.1,47.5,25.31,ENE,75,14.5,14.5,43,0.00,,---,0.04,VWS V14.01,2013-05-14 17:00:00,
2013-05-14 11:03:00,70.2,46.6,25.31,East,95,9.6,9.6,43,0.00,,---,0.04,VWS V14.01,2013-05-14 17:03:00,
2013-05-14 11:04:00,70.2,46.6,25.31,North,0,7.6,9.6,43,0.00,,---,0.04,VWS V14.01,2013-05-14 17:04:00,
2013-05-14 11:06:00,70.2,46.6,25.31,ESE,121,3.6,11.9,43,0.00,,---,0.04,VWS V14.01,2013-05-14 17:06:00,
2013-05-14 11:08:00,69.1,46.9,25.31,NE,44,7.6,10.1,45,0.00,,---,0.04,VWS V14.01,2013-05-14 17:08:00,
2013-05-14 11:09:00,69.1,46.9,25.31,East,86,10.5,10.5,45,0.00,,---,0.04,VWS V14.01,2013-05-14 17:09:00,
2013-05-14 11:11:00,68.5,47.0,25.31,ENE,64,3.6,3.6,46,0.00,,---,0.04,VWS V14.01,2013-05-14 17:11:00,
2013-05-14 11:13:00,68.5,47.0,25.31,SE,144,6.3,6.3,46,0.00,,---,0.04,VWS V14.01,2013-05-14 17:13:00,
2013-05-14 11:14:00,68.4,47.4,25.31,East,85,18.3,18.3,47,0.00,,---,0.04,VWS V14.01,2013-05-14 17:14:00,
2013-05-14 11:15:00,68.4,46.8,25.31,SSE,153,8.7,18.3,46,0.00,,---,0.04,VWS V14.01,2013-05-14 17:15:00,
2013-05-14 11:20:00,68.2,47.8,25.31,SE,141,10.5,10.5,48,0.00,,---,0.04,VWS V14.01,2013-05-14 17:20:00,
2013-05-14 11:21:00,68.2,47.8,25.31,South,176,7.6,10.5,48,0.00,,---,0.04,VWS V14.01,2013-05-14 17:21:00,
2013-05-14 11:23:00,68.2,47.2,25.31,ESE,115,9.2,12.3,47,0.00,,---,0.04,VWS V14.01,2013-05-14 17:23:00,
2013-05-14 11:24:00,68.2,47.2,25.31,ESE,115,9.2,9.2,47,0.00,,---,0.04,VWS V14.01,2013-05-14 17:24:00,
2013-05-14 11:26:00,68.2,47.8,25.31,East,90,3.1,9.2,48,0.00,,---,0.04,VWS V14.01,2013-05-14 17:26:00,
2013-05-14 11:30:00,68.5,47.5,25.31,NE,46,8.7,13.2,47,0.00,,---,0.04,VWS V14.01,2013-05-14 17:30:00,
2013-05-14 11:31:00,68.5,47.5,25.31,NE,46,8.7,8.7,47,0.00,,---,0.04,VWS V14.01,2013-05-14 17:31:00,
2013-05-14 11:35:00,68.2,47.2,25.31,SE,128,11.0,11.0,47,0.00,,---,0.04,VWS V14.01,2013-05-14 17:35:00,
2013-05-14 11:37:00,68.0,47.0,25.31,SE,128,11.0,11.0,47,0.00,,---,0.04,VWS V14.01,2013-05-14 17:37:00,
2013-05-14 11:39:00,68.0,47.0,25.31,SE,128,11.0,11.0,47,0.00,,---,0.04,VWS V14.01,2013-05-14 17:39:00,
2013-05-14 11:41:00,68.0,49.2,25.31,ESE,119,5.4,5.4,51,0.00,,---,0.04,VWS V14.01,2013-05-14 17:41:00,
2013-05-14 11:42:00,68.0,49.2,25.31,ESE,119,5.4,5.4,51,0.00,,---,0.04,VWS V14.01,2013-05-14 17:42:00,
2013-05-14 11:44:00,68.2,49.4,25.31,NE,54,3.6,3.6,51,0.00,,---,0.04,VWS V14.01,2013-05-14 17:44:00,
2013-05-14 11:46:00,68.2,48.3,25.31,SE,133,5.8,5.8,49,0.00,,---,0.04,VWS V14.01,2013-05-14 17:46:00,
2013-05-14 11:48:00,68.2,48.3,25.31,East,95,4.9,5.8,49,0.00,,---,0.04,VWS V14.01,2013-05-14 17:48:00,
2013-05-14 11:50:00,68.2,48.3,25.31,ESE,114,8.3,8.3,49,0.00,,---,0.04,VWS V14.01,2013-05-14 17:50:00,
2013-05-14 11:52:00,68.2,48.3,25.31,SSE,155,5.4,8.3,49,0.00,,---,0.04,VWS V14.01,2013-05-14 17:52:00,
2013-05-14 11:55:00,68.2,48.3,25.31,NE,51,5.8,8.7,49,0.00,,---,0.04,VWS V14.01,2013-05-14 17:55:00,
2013-05-14 11:57:00,68.2,48.3,25.31,ENE,68,8.7,8.7,49,0.00,,---,0.04,VWS V14.01,2013-05-14 17:57:00,
2013-05-14 12:00:00,68.5,48.6,25.31,SE,125,2.7,2.7,49,0.00,,---,0.04,VWS V14.01,2013-05-14 18:00:00,
2013-05-14 12:02:00,68.7,49.3,25.31,East,97,10.1,10.1,50,0.00,,---,0.04,VWS V14.01,2013-05-14 18:02:00,
2013-05-14 12:03:00,68.7,49.3,25.31,ENE,67,7.6,10.1,50,0.00,,---,0.04,VWS V14.01,2013-05-14 18:03:00,
2013-05-14 12:04:00,68.7,49.3,25.31,ENE,57,8.3,8.3,50,0.00,,---,0.04,VWS V14.01,2013-05-14 18:04:00,
2013-05-14 12:06:00,68.9,49.0,25.31,East,81,3.1,8.1,49,0.00,,---,0.04,VWS V14.01,2013-05-14 18:06:00,
2013-05-14 12:07:00,68.9,49.0,25.28,ENE,72,8.3,8.3,49,0.00,,---,0.04,VWS V14.01,2013-05-14 18:07:00,
2013-05-14 12:09:00,68.9,49.0,25.28,NNE,17,2.7,8.1,49,0.00,,---,0.04,VWS V14.01,2013-05-14 18:09:00,
2013-05-14 12:11:00,68.9,49.0,25.28,NE,48,3.6,3.6,49,0.00,,---,0.04,VWS V14.01,2013-05-14 18:11:00,
2013-05-14 12:12:00,69.6,50.7,25.28,North,9,8.1,8.1,51,0.00,,---,0.04,VWS V14.01,2013-05-14 18:12:00,
2013-05-14 12:14:00,69.6,50.7,25.28,ENE,61,4.9,5.8,51,0.00,,---,0.04,VWS V14.01,2013-05-14 18:14:00,
2013-05-14 12:15:00,69.6,50.7,25.28,ENE,61,4.9,4.9,51,0.00,,---,0.04,VWS V14.01,2013-05-14 18:15:00,
2013-05-14 12:19:00,69.6,50.7,25.28,NE,53,5.8,5.8,51,0.00,,---,0.04,VWS V14.01,2013-05-14 18:19:00,
2013-05-14 12:20:00,68.5,52.2,25.28,NE,36,3.6,5.8,56,0.00,,---,0.04,VWS V14.01,2013-05-14 18:20:00,
2013-05-14 12:21:00,68.5,52.2,25.28,NE,36,3.6,3.6,56,0.00,,---,0.04,VWS V14.01,2013-05-14 18:21:00,
2013-05-14 12:23:00,68.2,52.4,25.28,East,83,7.6,7.6,57,0.00,,---,0.04,VWS V14.01,2013-05-14 18:23:00,
2013-05-14 12:25:00,68.2,52.4,25.28,ESE,104,4.9,13.6,57,0.00,,---,0.04,VWS V14.01,2013-05-14 18:25:00,
2013-05-14 12:27:00,67.8,52.5,25.28,NE,54,4.0,4.9,58,0.00,,---,0.04,VWS V14.01,2013-05-14 18:27:00,
2013-05-14 12:30:00,67.8,52.5,25.28,SE,129,4.0,5.8,58,0.00,,---,0.04,VWS V14.01,2013-05-14 18:30:00,
2013-05-14 12:32:00,67.8,52.5,25.28,SE,126,4.9,4.9,58,0.00,,---,0.04,VWS V14.01,2013-05-14 18:32:00,
2013-05-14 12:33:00,67.8,52.5,25.28,NE,45,8.7,8.7,58,0.00,,---,0.04,VWS V14.01,2013-05-14 18:33:00,
2013-05-14 12:36:00,68.7,51.9,25.28,ENE,75,2.7,4.9,55,0.00,,---,0.04,VWS V14.01,2013-05-14 18:36:00,
2013-05-14 12:39:00,69.1,50.7,25.25,ENE,61,4.0,8.1,52,0.00,,---,0.04,VWS V14.01,2013-05-14 18:39:00,
2013-05-14 12:41:00,69.1,50.7,25.25,NE,46,4.9,4.9,52,0.00,,---,0.04,VWS V14.01,2013-05-14 18:41:00,
2013-05-14 12:44:00,70.0,51.0,25.25,East,79,6.3,6.3,51,0.00,,---,0.04,VWS V14.01,2013-05-14 18:44:00,
2013-05-14 12:45:00,70.0,51.0,25.25,East,99,6.3,6.3,51,0.00,,---,0.04,VWS V14.01,2013-05-14 18:45:00,
2013-05-14 12:46:00,70.0,51.0,25.25,East,99,6.3,6.3,51,0.00,,---,0.04,VWS V14.01,2013-05-14 18:46:00,
2013-05-14 12:47:00,70.0,51.0,25.25,East,99,6.3,6.3,51,0.00,,---,0.04,VWS V14.01,2013-05-14 18:47:00,
2013-05-14 12:51:00,70.0,51.0,25.25,ENE,64,5.4,5.4,51,0.00,,---,0.04,VWS V14.01,2013-05-14 18:51:00,
2013-05-14 12:52:00,70.2,51.2,25.25,NE,38,4.0,5.4,51,0.00,,---,0.04,VWS V14.01,2013-05-14 18:52:00,
2013-05-14 12:53:00,70.2,51.2,25.25,NE,46,5.4,5.4,51,0.00,,---,0.04,VWS V14.01,2013-05-14 18:53:00,
2013-05-14 12:54:00,70.2,51.2,25.25,NNW,348,8.7,8.7,51,0.00,,---,0.04,VWS V14.01,2013-05-14 18:54:00,
2013-05-14 12:56:00,70.2,51.2,25.25,NE,55,9.6,9.6,51,0.00,,---,0.04,VWS V14.01,2013-05-14 18:56:00,
2013-05-14 12:58:00,69.6,50.7,25.28,ESE,117,4.9,4.9,51,0.00,,---,0.04,VWS V14.01,2013-05-14 18:58:00,
2013-05-14 12:59:00,69.4,50.5,25.28,ESE,117,4.9,4.9,51,0.00,,---,0.04,VWS V14.01,2013-05-14 18:59:00,
2013-05-14 13:02:00,69.4,50.5,25.28,ESE,122,5.4,5.4,51,0.00,,---,0.04,VWS V14.01,2013-05-14 19:02:00,
2013-05-14 13:04:00,69.1,50.2,25.28,East,89,5.4,5.4,51,0.00,,---,0.04,VWS V14.01,2013-05-14 19:04:00,
2013-05-14 13:05:00,69.1,50.2,25.28,ENE,71,2.7,5.8,51,0.00,,---,0.04,VWS V14.01,2013-05-14 19:05:00,
2013-05-14 13:08:00,69.1,50.2,25.28,ESE,105,4.9,4.9,51,0.00,,---,0.04,VWS V14.01,2013-05-14 19:08:00,
2013-05-14 13:09:00,69.1,50.2,25.28,ENE,68,9.6,9.6,51,0.00,,---,0.04,VWS V14.01,2013-05-14 19:09:00,
2013-05-14 13:12:00,68.9,51.1,25.28,ENE,61,6.3,9.6,53,0.00,,---,0.04,VWS V14.01,2013-05-14 19:12:00,
2013-05-14 13:13:00,68.7,50.9,25.28,ENE,61,6.3,6.3,53,0.00,,---,0.04,VWS V14.01,2013-05-14 19:13:00,
2013-05-14 13:14:00,68.7,50.9,25.28,ESE,103,3.6,7.6,53,0.00,,---,0.04,VWS V14.01,2013-05-14 19:14:00,
2013-05-14 13:16:00,68.7,50.9,25.28,ENE,74,5.8,5.8,53,0.00,,---,0.04,VWS V14.01,2013-05-14 19:16:00,
2013-05-14 13:20:00,68.7,50.9,25.28,NNE,16,9.2,9.2,53,0.00,,---,0.04,VWS V14.01,2013-05-14 19:20:00,
2013-05-14 13:22:00,68.9,51.1,25.28,ESE,122,8.7,8.7,53,0.00,,---,0.04,VWS V14.01,2013-05-14 19:22:00,
2013-05-14 13:23:00,68.9,50.6,25.28,NE,41,3.1,8.7,52,0.00,,---,0.04,VWS V14.01,2013-05-14 19:23:00,
2013-05-14 13:24:00,68.9,50.6,25.25,NE,41,3.1,3.1,52,0.00,,---,0.04,VWS V14.01,2013-05-14 19:24:00,
2013-05-14 13:25:00,68.9,50.6,25.25,NE,45,8.3,8.3,52,0.00,,---,0.04,VWS V14.01,2013-05-14 19:25:00,
2013-05-14 13:26:00,68.9,50.6,25.25,NE,45,8.3,8.3,52,0.00,,---,0.04,VWS V14.01,2013-05-14 19:26:00,
2013-05-14 13:30:00,68.4,51.1,25.25,NE,47,10.1,10.1,54,0.00,,---,0.04,VWS V14.01,2013-05-14 19:30:00,
2013-05-14 13:31:00,68.4,51.1,25.25,ENE,63,4.0,10.1,54,0.00,,---,0.04,VWS V14.01,2013-05-14 19:31:00,
2013-05-14 13:32:00,68.4,51.1,25.25,NE,38,5.8,5.8,54,0.00,,---,0.04,VWS V14.01,2013-05-14 19:32:00,
2013-05-14 13:34:00,68.4,51.1,25.25,SE,131,6.3,6.7,54,0.00,,---,0.04,VWS V14.01,2013-05-14 19:34:00,
2013-05-14 13:37:00,68.4,51.1,25.25,ESE,116,7.6,7.6,54,0.00,,---,0.04,VWS V14.01,2013-05-14 19:37:00,
2013-05-14 13:39:00,68.5,51.8,25.25,East,100,5.8,5.8,55,0.00,,---,0.04,VWS V14.01,2013-05-14 19:39:00,
2013-05-14 13:40:00,68.5,51.8,25.25,ESE,105,4.0,5.8,55,0.00,,---,0.04,VWS V14.01,2013-05-14 19:40:00,
2013-05-14 13:42:00,68.5,51.8,25.25,ESE,111,5.8,5.8,55,0.00,,---,0.04,VWS V14.01,2013-05-14 19:42:00,
2013-05-14 13:44:00,68.5,51.2,25.25,ESE,106,5.8,5.8,54,0.00,,---,0.04,VWS V14.01,2013-05-14 19:44:00,
2013-05-14 13:45:00,68.7,52.4,25.25,ESE,106,5.8,5.8,56,0.00,,---,0.04,VWS V14.01,2013-05-14 19:45:00,
2013-05-14 13:46:00,68.7,52.4,25.25,East,80,5.4,5.8,56,0.00,,---,0.04,VWS V14.01,2013-05-14 19:46:00,
2013-05-14 13:48:00,68.7,52.4,25.25,SE,146,6.3,6.3,56,0.00,,---,0.04,VWS V14.01,2013-05-14 19:48:00,
2013-05-14 13:49:00,68.7,50.9,25.25,NE,49,8.1,8.1,53,0.00,,---,0.04,VWS V14.01,2013-05-14 19:49:00,
2013-05-14 13:51:00,68.7,50.9,25.25,NE,36,3.6,8.1,53,0.00,,---,0.04,VWS V14.01,2013-05-14 19:51:00,
2013-05-14 13:53:00,68.5,51.2,25.25,East,101,3.6,5.8,54,0.00,,---,0.04,VWS V14.01,2013-05-14 19:53:00,
2013-05-14 13:55:00,68.5,51.2,25.25,ESE,113,10.5,10.5,54,0.00,,---,0.04,VWS V14.01,2013-05-14 19:55:00,
2013-05-14 13:56:00,68.5,51.2,25.25,NE,36,5.4,10.5,54,0.00,,---,0.04,VWS V14.01,2013-05-14 19:56:00,
2013-05-14 14:01:00,68.0,51.7,25.25,ESE,103,4.9,7.6,56,0.00,,---,0.04,VWS V14.01,2013-05-14 20:01:00,
2013-05-14 14:03:00,68.0,51.7,25.25,SE,140,8.3,8.3,56,0.00,,---,0.04,VWS V14.01,2013-05-14 20:03:00,
2013-05-14 14:04:00,68.0,51.7,25.25,SE,140,8.3,8.3,56,0.00,,---,0.04,VWS V14.01,2013-05-14 20:04:00,
2013-05-14 14:08:00,66.7,52.9,25.25,ESE,115,4.0,6.7,61,0.00,,---,0.04,VWS V14.01,2013-05-14 20:08:00,
2013-05-14 14:09:00,66.6,53.2,25.25,ESE,121,6.3,6.3,62,0.00,,---,0.04,VWS V14.01,2013-05-14 20:09:00,
2013-05-14 14:11:00,66.4,53.4,25.25,ENE,59,4.0,4.0,63,0.00,,---,0.04,VWS V14.01,2013-05-14 20:11:00,
2013-05-14 14:14:00,66.4,53.4,25.25,ENE,75,4.9,4.9,63,0.00,,---,0.04,VWS V14.01,2013-05-14 20:14:00,
2013-05-14 14:16:00,66.2,53.7,25.25,SE,140,0.0,2.7,64,0.00,,---,0.04,VWS V14.01,2013-05-14 20:16:00,
2013-05-14 14:18:00,66.2,53.7,25.25,East,88,3.1,3.1,64,0.00,,---,0.04,VWS V14.01,2013-05-14 20:18:00,
2013-05-14 14:19:00,66.2,54.1,25.25,East,99,2.7,3.1,65,0.00,,---,0.04,VWS V14.01,2013-05-14 20:19:00,
2013-05-14 14:22:00,66.2,54.1,25.25,ENE,58,3.1,3.1,65,0.00,,---,0.04,VWS V14.01,2013-05-14 20:22:00,
2013-05-14 14:24:00,66.2,54.1,25.25,ESE,114,6.3,6.3,65,0.00,,---,0.04,VWS V14.01,2013-05-14 20:24:00,
2013-05-14 14:25:00,66.2,53.7,25.25,SE,138,3.1,6.3,64,0.00,,---,0.04,VWS V14.01,2013-05-14 20:25:00,
2013-05-14 14:29:00,66.2,53.7,25.25,ENE,78,5.4,5.4,64,0.00,,---,0.04,VWS V14.01,2013-05-14 20:29:00,
2013-05-14 14:30:00,66.2,53.7,25.25,ESE,103,4.0,5.4,64,0.00,,---,0.04,VWS V14.01,2013-05-14 20:30:00,
2013-05-14 14:31:00,66.6,54.0,25.25,ENE,57,2.7,4.0,64,0.00,,---,0.04,VWS V14.01,2013-05-14 20:31:00,
2013-05-14 14:32:00,66.6,54.0,25.25,ENE,57,2.7,2.7,64,0.00,,---,0.04,VWS V14.01,2013-05-14 20:32:00,
2013-05-14 14:36:00,66.7,53.8,25.25,East,81,3.1,3.1,63,0.00,,---,0.04,VWS V14.01,2013-05-14 20:36:00,
2013-05-14 14:38:00,66.7,53.8,25.25,ESE,115,3.6,3.6,63,0.00,,---,0.04,VWS V14.01,2013-05-14 20:38:00,
2013-05-14 14:39:00,66.7,53.8,25.25,SE,127,0.0,3.6,63,0.00,,---,0.04,VWS V14.01,2013-05-14 20:39:00,
2013-05-14 14:41:00,66.7,52.9,25.25,NNE,29,4.0,4.0,61,0.00,,---,0.04,VWS V14.01,2013-05-14 20:41:00,
2013-05-14 14:42:00,66.7,52.9,25.25,ENE,62,3.6,4.0,61,0.00,,---,0.04,VWS V14.01,2013-05-14 20:42:00,
2013-05-14 14:45:00,66.6,52.7,25.25,NNE,33,2.7,2.7,61,0.00,,---,0.04,VWS V14.01,2013-05-14 20:45:00,
2013-05-14 14:46:00,66.6,52.7,25.25,NNE,24,4.0,4.0,61,0.00,,---,0.04,VWS V14.01,2013-05-14 20:46:00,
2013-05-14 14:47:00,66.6,52.7,25.25,East,85,5.4,5.4,61,0.00,,---,0.04,VWS V14.01,2013-05-14 20:47:00,
2013-05-14 14:50:00,66.4,52.1,25.25,East,92,5.4,5.4,60,0.00,,---,0.04,VWS V14.01,2013-05-14 20:50:00,
2013-05-14 14:53:00,66.2,51.9,25.25,East,82,2.7,2.7,60,0.00,,---,0.04,VWS V14.01,2013-05-14 20:53:00,
2013-05-14 14:54:00,66.2,51.9,25.25,East,82,2.7,2.7,60,0.00,,---,0.04,VWS V14.01,2013-05-14 20:54:00,
2013-05-14 14:56:00,66.2,51.9,25.25,East,87,2.7,8.1,60,0.00,,---,0.04,VWS V14.01,2013-05-14 20:56:00,
2013-05-14 14:57:00,66.2,51.9,25.25,ENE,65,2.7,2.7,60,0.00,,---,0.04,VWS V14.01,2013-05-14 20:57:00,
2013-05-14 15:00:00,66.0,52.6,25.25,NNE,31,3.6,3.6,62,0.00,,---,0.04,VWS V14.01,2013-05-14 21:00:00,
2013-05-14 15:01:00,66.0,52.6,25.25,NW,316,4.0,4.0,62,0.00,,---,0.04,VWS V14.01,2013-05-14 21:01:00,
2013-05-14 15:02:00,66.0,52.6,25.25,NE,53,2.7,4.0,62,0.00,,---,0.04,VWS V14.01,2013-05-14 21:02:00,
2013-05-14 15:05:00,65.8,52.9,25.25,North,3,3.1,3.6,63,0.00,,---,0.04,VWS V14.01,2013-05-14 21:05:00,
2013-05-14 15:06:00,65.7,52.7,25.25,North,3,3.1,3.1,63,0.00,,---,0.04,VWS V14.01,2013-05-14 21:06:00,
2013-05-14 15:08:00,65.7,52.7,25.25,NNE,33,4.9,4.9,63,0.00,,---,0.04,VWS V14.01,2013-05-14 21:08:00,
2013-05-14 15:09:00,65.7,52.7,25.25,NNE,13,4.0,4.9,63,0.00,,---,0.04,VWS V14.01,2013-05-14 21:09:00,
2013-05-14 15:11:00,65.7,52.7,25.25,NNW,345,2.7,4.0,63,0.00,,---,0.04,VWS V14.01,2013-05-14 21:11:00,
2013-05-14 15:12:00,65.7,52.7,25.25,NE,51,5.4,5.4,63,0.00,,---,0.04,VWS V14.01,2013-05-14 21:12:00,
2013-05-14 15:14:00,65.3,52.8,25.25,North,11,5.4,5.4,64,0.00,,---,0.04,VWS V14.01,2013-05-14 21:14:00,
2013-05-14 15:16:00,65.3,52.8,25.25,ESE,102,3.1,5.4,64,0.00,,---,0.04,VWS V14.01,2013-05-14 21:16:00,
2013-05-14 15:18:00,65.1,52.7,25.25,North,2,4.0,4.0,64,0.00,,---,0.04,VWS V14.01,2013-05-14 21:18:00,
2013-05-14 15:19:00,65.1,52.7,25.25,North,2,4.0,4.0,64,0.00,,---,0.04,VWS V14.01,2013-05-14 21:19:00,
2013-05-14 15:22:00,65.1,52.7,25.25,NW,324,7.6,7.6,64,0.00,,---,0.04,VWS V14.01,2013-05-14 21:22:00,
2013-05-14 15:24:00,65.1,52.7,25.25,ESE,111,0.0,7.6,64,0.00,,---,0.04,VWS V14.01,2013-05-14 21:24:00,
2013-05-14 15:25:00,65.1,52.7,25.25,East,90,3.1,5.4,64,0.00,,---,0.04,VWS V14.01,2013-05-14 21:25:00,
2013-05-14 15:26:00,65.1,52.7,25.25,East,90,3.1,3.1,64,0.00,,---,0.04,VWS V14.01,2013-05-14 21:26:00,
2013-05-14 15:30:00,64.8,52.7,25.25,SSE,159,4.9,7.6,65,0.00,,---,0.04,VWS V14.01,2013-05-14 21:30:00,
2013-05-14 15:31:00,64.8,52.7,25.25,SSE,159,4.9,4.9,65,0.00,,---,0.04,VWS V14.01,2013-05-14 21:31:00,
2013-05-14 15:32:00,64.8,52.7,25.25,ESE,122,4.9,10.1,65,0.00,,---,0.04,VWS V14.01,2013-05-14 21:32:00,
2013-05-14 15:34:00,64.8,52.7,25.25,East,88,0.0,4.0,65,0.00,,---,0.04,VWS V14.01,2013-05-14 21:34:00,
2013-05-14 15:37:00,64.6,52.6,25.25,SE,140,7.2,7.2,65,0.00,,---,0.04,VWS V14.01,2013-05-14 21:37:00,
2013-05-14 15:38:00,64.6,52.6,25.25,ESE,103,5.4,7.2,65,0.00,,---,0.04,VWS V14.01,2013-05-14 21:38:00,
2013-05-14 15:40:00,64.4,52.0,25.25,ESE,104,4.9,4.9,64,0.00,,---,0.04,VWS V14.01,2013-05-14 21:40:00,
2013-05-14 15:45:00,64.6,50.8,25.25,ESE,104,6.3,6.3,61,0.00,,---,0.04,VWS V14.01,2013-05-14 21:45:00,
2013-05-14 15:47:00,64.6,50.8,25.25,ESE,104,6.3,6.3,61,0.00,,---,0.04,VWS V14.01,2013-05-14 21:47:00,
2013-05-14 15:49:00,64.8,50.6,25.25,East,91,4.5,5.8,60,0.00,,---,0.04,VWS V14.01,2013-05-14 21:49:00,
2013-05-14 15:50:00,64.8,50.6,25.25,ESE,104,4.5,4.5,60,0.00,,---,0.04,VWS V14.01,2013-05-14 21:50:00,
2013-05-14 15:51:00,64.8,50.6,25.25,East,100,5.8,8.1,60,0.00,,---,0.04,VWS V14.01,2013-05-14 21:51:00,
2013-05-14 15:53:00,64.9,50.3,25.25,East,94,8.1,8.1,59,0.00,,---,0.04,VWS V14.01,2013-05-14 21:53:00,
2013-05-14 15:54:00,64.9,50.3,25.25,East,101,5.4,8.1,59,0.00,,---,0.04,VWS V14.01,2013-05-14 21:54:00,
2013-05-14 15:56:00,64.9,50.3,25.25,East,80,3.1,5.4,59,0.00,,---,0.04,VWS V14.01,2013-05-14 21:56:00,
2013-05-14 15:57:00,64.9,50.3,25.25,East,80,3.1,3.1,59,0.00,,---,0.04,VWS V14.01,2013-05-14 21:57:00,
2013-05-14 16:01:00,64.8,50.1,25.25,ENE,78,10.1,10.1,59,0.00,,---,0.04,VWS V14.01,2013-05-14 22:01:00,
2013-05-14 16:02:00,64.8,50.1,25.25,SE,130,4.0,10.1,59,0.00,,---,0.04,VWS V14.01,2013-05-14 22:02:00,
2013-05-14 16:05:00,64.8,50.6,25.25,East,88,6.3,6.3,60,0.00,,---,0.04,VWS V14.01,2013-05-14 22:05:00,
2013-05-14 16:06:00,64.8,50.6,25.25,East,88,6.3,6.3,60,0.00,,---,0.04,VWS V14.01,2013-05-14 22:06:00,
2013-05-14 16:10:00,64.6,50.8,25.25,ENE,75,3.1,10.5,61,0.00,,---,0.04,VWS V14.01,2013-05-14 22:10:00,
2013-05-14 16:11:00,64.6,51.3,25.25,SE,133,3.6,3.6,62,0.00,,---,0.04,VWS V14.01,2013-05-14 22:11:00,
2013-05-14 16:12:00,64.6,51.3,25.25,SE,130,4.9,6.3,62,0.00,,---,0.04,VWS V14.01,2013-05-14 22:12:00,
2013-05-14 16:13:00,64.6,51.3,25.25,SE,130,4.9,4.9,62,0.00,,---,0.04,VWS V14.01,2013-05-14 22:13:00,
2013-05-14 16:17:00,64.6,52.1,25.25,ENE,76,5.8,6.3,64,0.00,,---,0.04,VWS V14.01,2013-05-14 22:17:00,
2013-05-14 16:18:00,64.6,52.1,25.25,ESE,107,4.0,5.8,64,0.00,,---,0.04,VWS V14.01,2013-05-14 22:18:00,
2013-05-14 16:19:00,64.6,52.1,25.25,NE,38,8.1,8.1,64,0.00,,---,0.04,VWS V14.01,2013-05-14 22:19:00,
2013-05-14 16:20:00,64.6,52.1,25.25,ENE,69,6.3,8.1,64,0.00,,---,0.04,VWS V14.01,2013-05-14 22:20:00,
2013-05-14 16:24:00,64.4,52.0,25.25,SSE,158,6.3,6.3,64,0.00,,---,0.04,VWS V14.01,2013-05-14 22:24:00,
2013-05-14 16:25:00,64.4,52.0,25.25,ESE,108,10.1,10.1,64,0.00,,---,0.04,VWS V14.01,2013-05-14 22:25:00,
2013-05-14 16:26:00,64.6,52.1,25.25,East,87,4.0,10.1,64,0.00,,---,0.04,VWS V14.01,2013-05-14 22:26:00,
2013-05-14 16:27:00,64.6,51.7,25.25,East,87,3.1,4.0,63,0.00,,---,0.04,VWS V14.01,2013-05-14 22:27:00,
2013-05-14 16:29:00,64.8,51.5,25.25,SE,143,5.4,6.3,62,0.00,,---,0.04,VWS V14.01,2013-05-14 22:29:00,
2013-05-14 16:31:00,64.8,51.5,25.25,SE,127,0.0,2.7,62,0.00,,---,0.04,VWS V14.01,2013-05-14 22:31:00,
2013-05-14 16:33:00,64.9,50.7,25.25,East,98,5.4,5.8,60,0.00,,---,0.04,VWS V14.01,2013-05-14 22:33:00,
2013-05-14 16:34:00,64.9,50.7,25.25,SE,129,7.6,7.6,60,0.00,,---,0.04,VWS V14.01,2013-05-14 22:34:00,
2013-05-14 16:39:00,65.3,48.7,25.25,East,87,7.6,7.6,55,0.00,,---,0.04,VWS V14.01,2013-05-14 22:39:00,
2013-05-14 16:42:00,65.3,48.7,25.25,East,100,6.3,6.3,55,0.00,,---,0.04,VWS V14.01,2013-05-14 22:42:00,
2013-05-14 16:43:00,65.5,48.4,25.25,NE,51,4.0,6.3,54,0.00,,---,0.04,VWS V14.01,2013-05-14 22:43:00,
2013-05-14 16:46:00,65.5,48.4,25.25,East,83,3.1,3.1,54,0.00,,---,0.04,VWS V14.01,2013-05-14 22:46:00,
2013-05-14 16:47:00,65.5,48.4,25.25,NE,36,3.6,4.9,54,0.00,,---,0.04,VWS V14.01,2013-05-14 22:47:00,
2013-05-14 16:49:00,65.5,48.4,25.25,ENE,68,5.4,5.4,54,0.00,,---,0.04,VWS V14.01,2013-05-14 22:49:00,
2013-05-14 16:51:00,65.5,48.4,25.25,East,81,3.1,8.3,54,0.00,,---,0.04,VWS V14.01,2013-05-14 22:51:00,
2013-05-14 16:53:00,65.5,48.4,25.25,NE,49,5.8,5.8,54,0.00,,---,0.04,VWS V14.01,2013-05-14 22:53:00,
2013-05-14 16:55:00,65.5,47.4,25.25,WSW,245,6.7,10.5,52,0.00,,---,0.04,VWS V14.01,2013-05-14 22:55:00,
2013-05-14 16:58:00,65.5,47.4,25.25,SSE,149,5.4,5.4,52,0.00,,---,0.04,VWS V14.01,2013-05-14 22:58:00,
2013-05-14 16:59:00,65.5,46.9,25.25,SE,146,3.6,5.8,51,0.00,,---,0.04,VWS V14.01,2013-05-14 22:59:00,
2013-05-14 17:01:00,65.5,46.9,25.25,NE,43,5.8,5.8,51,0.00,,---,0.04,VWS V14.01,2013-05-14 23:01:00,
2013-05-14 17:02:00,65.5,46.9,25.25,SE,131,8.3,8.3,51,0.00,,---,0.04,VWS V14.01,2013-05-14 23:02:00,
2013-05-14 17:05:00,65.5,47.4,25.25,SSE,152,12.3,12.3,52,0.00,,---,0.04,VWS V14.01,2013-05-14 23:05:00,
2013-05-14 17:07:00,65.5,46.9,25.25,South,169,7.6,7.6,51,0.00,,---,0.04,VWS V14.01,2013-05-14 23:07:00,
2013-05-14 17:09:00,65.3,47.2,25.25,SSE,150,6.3,17.4,52,0.00,,---,0.04,VWS V14.01,2013-05-14 23:09:00,
2013-05-14 17:12:00,65.3,47.8,25.25,SSE,153,10.5,10.5,53,0.00,,---,0.04,VWS V14.01,2013-05-14 23:12:00,
2013-05-14 17:13:00,65.1,48.1,25.25,SE,128,11.9,11.9,54,0.00,,---,0.04,VWS V14.01,2013-05-14 23:13:00,
2013-05-14 17:15:00,64.9,47.9,25.25,ESE,108,9.2,16.3,54,0.00,,---,0.04,VWS V14.01,2013-05-14 23:15:00,
2013-05-14 17:16:00,64.8,48.2,25.25,ESE,117,5.4,10.1,55,0.00,,---,0.04,VWS V14.01,2013-05-14 23:16:00,
2013-05-14 17:19:00,64.8,48.2,25.28,East,86,11.0,11.0,55,0.00,,---,0.04,VWS V14.01,2013-05-14 23:19:00,
2013-05-14 17:20:00,64.6,48.1,25.28,ESE,110,8.3,12.8,55,0.00,,---,0.04,VWS V14.01,2013-05-14 23:20:00,
2013-05-14 17:21:00,64.6,48.1,25.28,East,88,4.9,8.3,55,0.00,,---,0.04,VWS V14.01,2013-05-14 23:21:00,
2013-05-14 17:23:00,64.6,48.1,25.28,East,85,4.9,4.9,55,0.00,,---,0.04,VWS V14.01,2013-05-14 23:23:00,
2013-05-14 17:24:00,64.6,48.5,25.28,South,180,10.1,10.1,56,0.00,,---,0.04,VWS V14.01,2013-05-14 23:24:00,
2013-05-14 17:26:00,64.6,48.5,25.28,SE,137,8.3,10.1,56,0.00,,---,0.04,VWS V14.01,2013-05-14 23:26:00,
2013-05-14 17:30:00,64.4,48.4,25.28,SSE,156,4.0,8.7,56,0.00,,---,0.04,VWS V14.01,2013-05-14 23:30:00,
2013-05-14 17:31:00,64.4,48.4,25.28,SE,140,10.5,10.5,56,0.00,,---,0.04,VWS V14.01,2013-05-14 23:31:00,
2013-05-14 17:32:00,64.4,48.4,25.28,SE,140,10.5,10.5,56,0.00,,---,0.04,VWS V14.01,2013-05-14 23:32:00,
2013-05-14 17:33:00,64.4,48.4,25.28,East,84,8.7,10.5,56,0.00,,---,0.04,VWS V14.01,2013-05-14 23:33:00,
2013-05-14 17:38:00,64.4,48.4,25.28,SE,124,7.6,11.0,56,0.00,,---,0.04,VWS V14.01,2013-05-14 23:38:00,
2013-05-14 17:39:00,64.2,48.7,25.28,East,95,5.8,7.6,57,0.00,,---,0.04,VWS V14.01,2013-05-14 23:39:00,
2013-05-14 17:40:00,64.4,48.8,25.28,East,95,5.8,5.8,57,0.00,,---,0.04,VWS V14.01,2013-05-14 23:40:00,
2013-05-14 17:41:00,64.4,48.8,25.28,SE,138,5.8,8.3,57,0.00,,---,0.04,VWS V14.01,2013-05-14 23:41:00,
2013-05-14 17:43:00,64.4,48.8,25.28,ESE,108,6.3,7.6,57,0.00,,---,0.04,VWS V14.01,2013-05-14 23:43:00,
2013-05-14 17:45:00,64.4,48.8,25.28,ESE,116,6.3,7.6,57,0.00,,---,0.04,VWS V14.01,2013-05-14 23:45:00,
2013-05-14 17:48:00,64.4,48.8,25.28,East,89,8.1,8.1,57,0.00,,---,0.04,VWS V14.01,2013-05-14 23:48:00,
2013-05-14 17:49:00,64.4,48.8,25.28,ENE,68,5.8,8.1,57,0.00,,---,0.04,VWS V14.01,2013-05-14 23:49:00,
2013-05-14 17:50:00,64.4,48.8,25.28,SSE,160,3.1,5.8,57,0.00,,---,0.04,VWS V14.01,2013-05-14 23:50:00,
2013-05-14 17:51:00,64.4,48.8,25.28,SSE,164,8.7,8.7,57,0.00,,---,0.04,VWS V14.01,2013-05-14 23:51:00,
2013-05-14 17:52:00,64.2,49.2,25.28,East,98,5.8,8.7,58,0.00,,---,0.04,VWS V14.01,2013-05-14 23:52:00,
2013-05-14 17:57:00,64.2,48.7,25.28,SE,126,13.2,13.2,57,0.00,,---,0.04,VWS V14.01,2013-05-14 23:57:00,
2013-05-14 17:58:00,64.2,48.7,25.28,SE,137,5.4,13.2,57,0.00,,---,0.04,VWS V14.01,2013-05-14 23:58:00,
2013-05-14 17:59:00,64.2,48.7,25.28,SE,130,5.4,6.3,57,0.00,,---,0.04,VWS V14.01,2013-05-14 23:59:00,
2013-05-14 18:03:00,64.2,48.2,25.28,East,87,12.8,12.8,56,0.00,,---,0.04,VWS V14.01,2013-05-15 00:03:00,
2013-05-14 18:07:00,64.4,48.4,25.28,ENE,73,6.3,8.7,56,0.00,,---,0.04,VWS V14.01,2013-05-15 00:07:00,
2013-05-14 18:08:00,64.4,47.9,25.28,East,91,5.4,10.5,55,0.00,,---,0.04,VWS V14.01,2013-05-15 00:08:00,
2013-05-14 18:11:00,64.4,47.4,25.28,SE,135,6.3,10.1,54,0.00,,---,0.04,VWS V14.01,2013-05-15 00:11:00,
2013-05-14 18:14:00,64.4,47.4,25.28,ENE,72,5.4,5.4,54,0.00,,---,0.04,VWS V14.01,2013-05-15 00:14:00,
2013-05-14 18:15:00,64.4,47.4,25.28,ESE,112,8.7,8.7,54,0.00,,---,0.04,VWS V14.01,2013-05-15 00:15:00,
2013-05-14 18:16:00,64.4,47.4,25.28,ESE,112,8.7,8.7,54,0.00,,---,0.04,VWS V14.01,2013-05-15 00:16:00,
2013-05-14 18:21:00,64.4,47.4,25.28,WSW,239,2.2,8.1,54,0.00,,---,0.04,VWS V14.01,2013-05-15 00:21:00,
2013-05-14 18:22:00,64.6,47.6,25.28,SE,129,6.3,6.3,54,0.00,,---,0.04,VWS V14.01,2013-05-15 00:22:00,
2013-05-14 18:23:00,64.6,47.6,25.28,SE,129,6.3,6.3,54,0.00,,---,0.04,VWS V14.01,2013-05-15 00:23:00,
2013-05-14 18:27:00,64.6,48.1,25.28,SSE,166,7.6,7.6,55,0.00,,---,0.04,VWS V14.01,2013-05-15 00:27:00,
2013-05-14 18:28:00,64.6,48.1,25.28,SSE,166,7.6,7.6,55,0.00,,---,0.04,VWS V14.01,2013-05-15 00:28:00,
2013-05-14 18:29:00,64.6,48.1,25.28,NE,56,6.3,7.6,55,0.00,,---,0.04,VWS V14.01,2013-05-15 00:29:00,
2013-05-14 18:32:00,64.4,48.8,25.28,East,97,8.3,11.0,57,0.00,,---,0.04,VWS V14.01,2013-05-15 00:32:00,
2013-05-14 18:34:00,64.2,49.2,25.28,East,101,5.4,5.4,58,0.00,,---,0.04,VWS V14.01,2013-05-15 00:34:00,
2013-05-14 18:35:00,64.2,49.2,25.28,ENE,77,3.6,5.4,58,0.00,,---,0.04,VWS V14.01,2013-05-15 00:35:00,
2013-05-14 18:37:00,64.2,49.2,25.28,ESE,115,4.0,4.0,58,0.00,,---,0.04,VWS V14.01,2013-05-15 00:37:00,
2013-05-14 18:39:00,64.0,49.0,25.28,East,81,2.7,4.0,58,0.00,,---,0.04,VWS V14.01,2013-05-15 00:39:00,
2013-05-14 18:43:00,64.0,49.0,25.28,East,99,5.4,5.8,58,0.00,,---,0.04,VWS V14.01,2013-05-15 00:43:00,
2013-05-14 18:44:00,64.0,49.0,25.28,ENE,65,4.0,6.3,58,0.00,,---,0.04,VWS V14.01,2013-05-15 00:44:00,
2013-05-14 18:45:00,64.0,49.0,25.28,ENE,65,4.0,4.0,58,0.00,,---,0.04,VWS V14.01,2013-05-15 00:45:00,
2013-05-14 18:47:00,63.9,48.8,25.28,SE,136,4.9,4.9,58,0.00,,---,0.04,VWS V14.01,2013-05-15 00:47:00,
2013-05-14 18:48:00,63.9,48.8,25.28,SW,215,3.1,4.9,58,0.00,,---,0.04,VWS V14.01,2013-05-15 00:48:00,
2013-05-14 18:49:00,63.9,48.8,25.28,SW,215,3.1,3.1,58,0.00,,---,0.04,VWS V14.01,2013-05-15 00:49:00,
2013-05-14 18:52:00,63.9,49.3,25.28,East,83,3.1,3.1,59,0.00,,---,0.04,VWS V14.01,2013-05-15 00:52:00,
2013-05-14 18:53:00,63.9,49.3,25.28,ENE,72,5.8,5.8,59,0.00,,---,0.04,VWS V14.01,2013-05-15 00:53:00,
2013-05-14 18:56:00,63.9,49.3,25.28,ESE,104,5.4,5.4,59,0.00,,---,0.04,VWS V14.01,2013-05-15 00:56:00,
2013-05-14 18:58:00,63.9,49.7,25.28,ESE,118,5.4,5.4,60,0.00,,---,0.04,VWS V14.01,2013-05-15 00:58:00,
2013-05-14 18:59:00,63.9,49.7,25.28,SE,127,7.6,7.6,60,0.00,,---,0.04,VWS V14.01,2013-05-15 00:59:00,
2013-05-14 19:01:00,63.9,49.3,25.28,SE,130,5.8,7.6,59,0.00,,---,0.04,VWS V14.01,2013-05-15 01:01:00,
2013-05-14 19:04:00,63.9,49.7,25.28,ENE,57,5.4,7.6,60,0.00,,---,0.04,VWS V14.01,2013-05-15 01:04:00,
2013-05-14 19:05:00,63.9,49.7,25.28,NNE,22,7.6,7.6,60,0.00,,---,0.04,VWS V14.01,2013-05-15 01:05:00,
2013-05-14 19:07:00,63.9,49.7,25.31,East,93,6.3,8.1,60,0.00,,---,0.04,VWS V14.01,2013-05-15 01:07:00,
2013-05-14 19:08:00,63.9,49.7,25.31,East,95,3.1,10.5,60,0.00,,---,0.04,VWS V14.01,2013-05-15 01:08:00,
2013-05-14 19:09:00,63.9,49.7,25.31,ENE,71,9.6,9.6,60,0.00,,---,0.04,VWS V14.01,2013-05-15 01:09:00,
2013-05-14 19:11:00,63.9,49.7,25.31,SE,141,3.1,8.1,60,0.00,,---,0.04,VWS V14.01,2013-05-15 01:11:00,
2013-05-14 19:13:00,63.9,49.7,25.31,ENE,73,6.3,6.3,60,0.00,,---,0.04,VWS V14.01,2013-05-15 01:13:00,
2013-05-14 19:17:00,63.9,49.7,25.31,NE,52,5.8,5.8,60,0.00,,---,0.04,VWS V14.01,2013-05-15 01:17:00,
2013-05-14 19:18:00,63.9,49.7,25.31,NE,52,5.8,5.8,60,0.00,,---,0.04,VWS V14.01,2013-05-15 01:18:00,
2013-05-14 19:22:00,63.9,49.7,25.31,SSE,149,3.6,3.6,60,0.00,,---,0.04,VWS V14.01,2013-05-15 01:22:00,
2013-05-14 19:24:00,63.9,49.3,25.31,SE,136,9.2,9.2,59,0.00,,---,0.04,VWS V14.01,2013-05-15 01:24:00,
2013-05-14 19:27:00,64.0,49.4,25.31,SE,135,6.3,9.2,59,0.00,,---,0.04,VWS V14.01,2013-05-15 01:27:00,
2013-05-14 19:29:00,64.0,49.4,25.31,ESE,102,5.4,6.3,59,0.00,,---,0.04,VWS V14.01,2013-05-15 01:29:00,
2013-05-14 19:31:00,64.0,49.4,25.31,SE,133,5.4,8.1,59,0.00,,---,0.04,VWS V14.01,2013-05-15 01:31:00,
2013-05-14 19:33:00,64.2,49.6,25.31,SE,138,5.4,5.4,59,0.00,,---,0.04,VWS V14.01,2013-05-15 01:33:00,
2013-05-14 19:35:00,64.2,49.6,25.31,SE,127,8.1,8.1,59,0.00,,---,0.04,VWS V14.01,2013-05-15 01:35:00,
2013-05-14 19:38:00,64.2,49.6,25.31,SE,137,5.4,5.8,59,0.00,,---,0.04,VWS V14.01,2013-05-15 01:38:00,
2013-05-14 19:40:00,64.2,50.1,25.31,South,190,5.8,5.8,60,0.00,,---,0.04,VWS V14.01,2013-05-15 01:40:00,
2013-05-14 19:42:00,64.2,49.6,25.31,SW,226,7.6,12.3,59,0.00,,---,0.04,VWS V14.01,2013-05-15 01:42:00,
2013-05-14 19:43:00,64.2,49.6,25.31,ESE,108,6.3,15.0,59,0.00,,---,0.04,VWS V14.01,2013-05-15 01:43:00,
2013-05-14 19:45:00,64.2,50.1,25.31,East,87,10.5,11.0,60,0.00,,---,0.04,VWS V14.01,2013-05-15 01:45:00,
2013-05-14 19:46:00,64.2,50.1,25.31,East,93,3.6,10.5,60,0.00,,---,0.04,VWS V14.01,2013-05-15 01:46:00,
2013-05-14 19:48:00,64.0,49.9,25.31,SSE,154,8.1,8.1,60,0.00,,---,0.04,VWS V14.01,2013-05-15 01:48:00,
2013-05-14 19:49:00,64.0,49.9,25.31,SE,127,5.4,8.1,60,0.00,,---,0.04,VWS V14.01,2013-05-15 01:49:00,
2013-05-14 19:52:00,64.0,51.2,25.31,SE,135,6.3,6.3,63,0.00,,---,0.04,VWS V14.01,2013-05-15 01:52:00,
2013-05-14 19:53:00,64.0,51.2,25.31,SE,135,6.3,6.3,63,0.00,,---,0.04,VWS V14.01,2013-05-15 01:53:00,
2013-05-14 19:54:00,64.0,51.2,25.31,SSE,147,7.6,7.6,63,0.00,,---,0.04,VWS V14.01,2013-05-15 01:54:00,
2013-05-14 19:58:00,63.9,50.6,25.31,ESE,110,8.1,8.1,62,0.00,,---,0.04,VWS V14.01,2013-05-15 01:58:00,
2013-05-14 19:59:00,63.7,51.3,25.31,ESE,117,11.0,11.0,64,0.00,,---,0.04,VWS V14.01,2013-05-15 01:59:00,
2013-05-14 20:02:00,63.7,51.3,25.31,ESE,112,12.3,12.3,64,0.00,,---,0.04,VWS V14.01,2013-05-15 02:02:00,
2013-05-14 20:04:00,63.7,51.7,25.31,SE,124,5.4,5.8,65,0.00,,---,0.04,VWS V14.01,2013-05-15 02:04:00,
2013-05-14 20:05:00,63.7,51.7,25.31,ENE,58,17.0,17.0,65,0.00,,---,0.04,VWS V14.01,2013-05-15 02:05:00,
2013-05-14 20:09:00,63.7,51.7,25.31,SE,128,5.4,12.3,65,0.00,,---,0.04,VWS V14.01,2013-05-15 02:09:00,
2013-05-14 20:10:00,63.7,51.7,25.31,SE,136,3.6,8.3,65,0.00,,---,0.04,VWS V14.01,2013-05-15 02:10:00,
2013-05-14 20:13:00,63.7,51.3,25.31,SE,126,0.0,3.6,64,0.00,,---,0.04,VWS V14.01,2013-05-15 02:13:00,
2013-05-14 20:14:00,63.7,51.3,25.31,East,81,6.7,14.1,64,0.00,,---,0.04,VWS V14.01,2013-05-15 02:14:00,
2013-05-14 20:15:00,63.7,51.3,25.31,East,81,6.7,6.7,64,0.00,,---,0.04,VWS V14.01,2013-05-15 02:15:00,
2013-05-14 20:19:00,63.9,50.6,25.31,SSE,161,4.0,5.4,62,0.00,,---,0.04,VWS V14.01,2013-05-15 02:19:00,
2013-05-14 20:21:00,63.9,51.0,25.31,East,83,8.7,8.7,63,0.00,,---,0.04,VWS V14.01,2013-05-15 02:21:00,
2013-05-14 20:23:00,63.9,51.0,25.31,East,83,8.7,8.7,63,0.00,,---,0.04,VWS V14.01,2013-05-15 02:23:00,
2013-05-14 20:24:00,63.9,50.6,25.31,East,83,8.7,8.7,62,0.00,,---,0.04,VWS V14.01,2013-05-15 02:24:00,
2013-05-14 20:26:00,63.9,50.6,25.31,ENE,65,2.2,2.7,62,0.00,,---,0.04,VWS V14.01,2013-05-15 02:26:00,
2013-05-14 20:27:00,63.9,50.6,25.31,ENE,65,2.2,2.2,62,0.00,,---,0.04,VWS V14.01,2013-05-15 02:27:00,
2013-05-14 20:28:00,63.9,50.6,25.31,ENE,65,2.2,2.2,62,0.00,,---,0.04,VWS V14.01,2013-05-15 02:28:00,
2013-05-14 20:29:00,63.9,50.6,25.31,ENE,65,2.2,2.2,62,0.00,,---,0.04,VWS V14.01,2013-05-15 02:29:00,
2013-05-14 20:32:00,63.9,51.0,25.31,SE,141,8.1,8.1,63,0.00,,---,0.04,VWS V14.01,2013-05-15 02:32:00,
2013-05-14 20:33:00,63.9,51.0,25.31,SSE,158,5.8,8.1,63,0.00,,---,0.04,VWS V14.01,2013-05-15 02:33:00,
2013-05-14 20:34:00,63.9,51.0,25.31,SSE,168,5.4,5.8,63,0.00,,---,0.04,VWS V14.01,2013-05-15 02:34:00,
2013-05-14 20:36:00,63.9,51.5,25.31,East,86,5.8,5.8,64,0.00,,---,0.04,VWS V14.01,2013-05-15 02:36:00,
2013-05-14 20:37:00,63.9,51.5,25.31,East,96,8.3,8.3,64,0.00,,---,0.04,VWS V14.01,2013-05-15 02:37:00,
2013-05-14 20:39:00,63.7,51.3,25.31,ESE,111,6.3,8.3,64,0.00,,---,0.04,VWS V14.01,2013-05-15 02:39:00,
2013-05-14 20:40:00,63.7,51.3,25.31,East,86,6.7,6.7,64,0.00,,---,0.04,VWS V14.01,2013-05-15 02:40:00,
2013-05-14 20:44:00,63.5,51.1,25.31,ENE,72,7.6,7.6,64,0.00,,---,0.04,VWS V14.01,2013-05-15 02:44:00,
2013-05-14 20:45:00,63.5,51.1,25.31,ENE,72,7.6,7.6,64,0.00,,---,0.04,VWS V14.01,2013-05-15 02:45:00,
2013-05-14 20:46:00,63.5,51.5,25.31,SE,146,4.0,7.6,65,0.00,,---,0.04,VWS V14.01,2013-05-15 02:46:00,
2013-05-14 20:48:00,63.5,51.5,25.31,East,83,6.3,6.3,65,0.00,,---,0.04,VWS V14.01,2013-05-15 02:48:00,
2013-05-14 20:51:00,63.5,51.1,25.31,South,175,3.1,5.4,64,0.00,,---,0.04,VWS V14.01,2013-05-15 02:51:00,
2013-05-14 20:52:00,63.5,51.1,25.31,East,101,8.3,14.1,64,0.00,,---,0.04,VWS V14.01,2013-05-15 02:52:00,
2013-05-14 20:53:00,63.5,51.5,25.31,South,189,4.0,8.3,65,0.00,,---,0.04,VWS V14.01,2013-05-15 02:53:00,
2013-05-14 20:57:00,63.5,51.5,25.31,SE,138,3.1,5.8,65,0.00,,---,0.04,VWS V14.01,2013-05-15 02:57:00,
2013-05-14 20:58:00,63.5,51.5,25.31,SE,138,3.1,3.1,65,0.00,,---,0.04,VWS V14.01,2013-05-15 02:58:00,
2013-05-14 21:00:00,63.3,51.4,25.31,SE,138,3.1,3.1,65,0.00,,---,0.04,VWS V14.01,2013-05-15 03:00:00,
2013-05-14 21:01:00,63.3,51.0,25.31,South,172,5.8,5.8,64,0.00,,---,0.04,VWS V14.01,2013-05-15 03:01:00,
2013-05-14 21:05:00,63.3,51.0,25.31,NE,56,4.0,5.8,64,0.00,,---,0.04,VWS V14.01,2013-05-15 03:05:00,
2013-05-14 21:07:00,63.5,51.1,25.31,SE,130,15.4,15.4,64,0.00,,---,0.04,VWS V14.01,2013-05-15 03:07:00,
2013-05-14 21:09:00,63.5,51.1,25.31,SE,130,15.4,15.4,64,0.00,,---,0.04,VWS V14.01,2013-05-15 03:09:00,
2013-05-14 21:10:00,63.5,51.1,25.31,SE,130,15.4,15.4,64,0.00,,---,0.04,VWS V14.01,2013-05-15 03:10:00,
2013-05-14 21:13:00,63.5,51.1,25.31,SE,129,8.7,8.7,64,0.00,,---,0.04,VWS V14.01,2013-05-15 03:13:00,
2013-05-14 21:14:00,63.5,51.1,25.31,East,101,11.9,11.9,64,0.00,,---,0.04,VWS V14.01,2013-05-15 03:14:00,
2013-05-14 21:16:00,63.5,50.7,25.31,SE,135,10.1,10.5,63,0.00,,---,0.04,VWS V14.01,2013-05-15 03:16:00,
2013-05-14 21:19:00,63.7,50.9,25.31,SE,127,7.6,10.5,63,0.00,,---,0.04,VWS V14.01,2013-05-15 03:19:00,
2013-05-14 21:20:00,63.7,50.4,25.31,SE,127,7.6,7.6,62,0.00,,---,0.04,VWS V14.01,2013-05-15 03:20:00,
2013-05-14 21:21:00,63.7,50.4,25.31,SE,127,7.6,7.6,62,0.00,,---,0.04,VWS V14.01,2013-05-15 03:21:00,
2013-05-14 21:26:00,63.7,50.4,25.31,NE,56,5.4,10.5,62,0.00,,---,0.04,VWS V14.01,2013-05-15 03:26:00,
2013-05-14 21:28:00,63.7,50.4,25.31,NE,56,5.4,5.4,62,0.00,,---,0.04,VWS V14.01,2013-05-15 03:28:00,
2013-05-14 21:29:00,63.7,50.0,25.31,NE,56,5.4,5.4,61,0.00,,---,0.04,VWS V14.01,2013-05-15 03:29:00,
2013-05-14 21:30:00,63.7,50.0,25.31,ENE,70,8.7,8.7,61,0.00,,---,0.04,VWS V14.01,2013-05-15 03:30:00,
2013-05-14 21:32:00,63.7,50.0,25.31,ENE,66,11.0,11.0,61,0.00,,---,0.04,VWS V14.01,2013-05-15 03:32:00,
2013-05-14 21:34:00,63.9,50.2,25.34,ENE,77,10.5,12.8,61,0.00,,---,0.04,VWS V14.01,2013-05-15 03:34:00,
2013-05-14 21:35:00,63.9,50.2,25.34,ENE,77,10.5,10.5,61,0.00,,---,0.04,VWS V14.01,2013-05-15 03:35:00,
2013-05-14 21:36:00,63.9,50.2,25.34,ESE,108,10.5,10.5,61,0.00,,---,0.04,VWS V14.01,2013-05-15 03:36:00,
2013-05-14 21:38:00,63.7,50.0,25.34,East,88,5.8,5.8,61,0.00,,---,0.04,VWS V14.01,2013-05-15 03:38:00,
2013-05-14 21:40:00,63.7,50.0,25.34,East,92,5.4,5.8,61,0.00,,---,0.04,VWS V14.01,2013-05-15 03:40:00,
2013-05-14 21:42:00,63.7,50.0,25.34,East,92,5.4,5.4,61,0.00,,---,0.04,VWS V14.01,2013-05-15 03:42:00,
2013-05-14 21:43:00,63.7,49.5,25.34,East,92,5.4,5.4,60,0.00,,---,0.04,VWS V14.01,2013-05-15 03:43:00,
2013-05-14 21:44:00,63.7,49.5,25.34,SSW,206,5.8,5.8,60,0.00,,---,0.04,VWS V14.01,2013-05-15 03:44:00,
2013-05-14 21:49:00,63.7,50.0,25.34,East,88,10.1,10.1,61,0.00,,---,0.04,VWS V14.01,2013-05-15 03:49:00,
2013-05-14 21:53:00,63.7,50.0,25.34,SE,125,8.3,8.3,61,0.00,,---,0.04,VWS V14.01,2013-05-15 03:53:00,
2013-05-14 21:55:00,63.7,50.0,25.34,SW,222,5.4,8.3,61,0.00,,---,0.04,VWS V14.01,2013-05-15 03:55:00,
2013-05-14 21:57:00,63.7,50.0,25.34,East,96,12.8,12.8,61,0.00,,---,0.04,VWS V14.01,2013-05-15 03:57:00,
2013-05-14 21:59:00,63.7,50.0,25.34,NE,44,8.7,8.7,61,0.00,,---,0.04,VWS V14.01,2013-05-15 03:59:00,
2013-05-14 22:00:00,63.7,50.0,25.34,NE,44,8.7,8.7,61,0.00,,---,0.04,VWS V14.01,2013-05-15 04:00:00,
2013-05-14 22:01:00,63.7,50.0,25.34,NE,44,8.7,8.7,61,0.00,,---,0.04,VWS V14.01,2013-05-15 04:01:00,
2013-05-14 22:02:00,63.7,50.0,25.34,NE,44,8.7,8.7,61,0.00,,---,0.04,VWS V14.01,2013-05-15 04:02:00,
2013-05-14 22:03:00,63.7,50.0,25.34,SE,146,8.3,8.7,61,0.00,,---,0.04,VWS V14.01,2013-05-15 04:03:00,
2013-05-14 22:05:00,63.7,50.0,25.34,ENE,76,4.9,8.3,61,0.00,,---,0.04,VWS V14.01,2013-05-15 04:05:00,
2013-05-14 22:07:00,63.7,50.0,25.34,East,96,13.6,13.6,61,0.00,,---,0.04,VWS V14.01,2013-05-15 04:07:00,
2013-05-14 22:08:00,63.7,50.0,25.34,SE,144,6.3,13.6,61,0.00,,---,0.04,VWS V14.01,2013-05-15 04:08:00,
2013-05-14 22:10:00,63.7,50.4,25.34,East,86,12.3,12.3,62,0.00,,---,0.04,VWS V14.01,2013-05-15 04:10:00,
2013-05-14 22:11:00,63.7,50.4,25.34,East,86,12.3,12.3,62,0.00,,---,0.04,VWS V14.01,2013-05-15 04:11:00,
2013-05-14 22:14:00,63.5,50.3,25.34,East,89,6.7,6.7,62,0.00,,---,0.04,VWS V14.01,2013-05-15 04:14:00,
2013-05-14 22:15:00,63.5,50.7,25.34,East,92,8.1,10.5,63,0.00,,---,0.04,VWS V14.01,2013-05-15 04:15:00,
2013-05-14 22:16:00,63.5,50.7,25.34,ENE,71,3.6,8.1,63,0.00,,---,0.04,VWS V14.01,2013-05-15 04:16:00,
2013-05-14 22:20:00,63.5,50.7,25.34,East,93,7.6,8.3,63,0.00,,---,0.04,VWS V14.01,2013-05-15 04:20:00,
2013-05-14 22:22:00,63.5,50.7,25.34,ESE,102,9.6,9.6,63,0.00,,---,0.04,VWS V14.01,2013-05-15 04:22:00,
2013-05-14 22:23:00,63.3,50.5,25.34,ESE,102,9.6,9.6,63,0.00,,---,0.04,VWS V14.01,2013-05-15 04:23:00,
2013-05-14 22:25:00,63.3,50.5,25.34,East,97,8.3,8.3,63,0.00,,---,0.04,VWS V14.01,2013-05-15 04:25:00,
2013-05-14 22:26:00,63.3,50.5,25.34,East,97,8.3,8.3,63,0.00,,---,0.04,VWS V14.01,2013-05-15 04:26:00,
2013-05-14 22:27:00,63.3,50.5,25.34,ESE,104,8.3,10.1,63,0.00,,---,0.04,VWS V14.01,2013-05-15 04:27:00,
2013-05-14 22:28:00,63.3,50.5,25.34,ESE,104,8.3,8.3,63,0.00,,---,0.04,VWS V14.01,2013-05-15 04:28:00,
2013-05-14 22:29:00,63.3,50.5,25.34,ESE,104,8.3,8.3,63,0.00,,---,0.04,VWS V14.01,2013-05-15 04:29:00,
2013-05-14 22:33:00,63.1,50.3,25.34,ESE,107,12.8,12.8,63,0.00,,---,0.04,VWS V14.01,2013-05-15 04:33:00,
2013-05-14 22:35:00,63.3,50.5,25.34,ESE,112,12.8,12.8,63,0.00,,---,0.04,VWS V14.01,2013-05-15 04:35:00,
2013-05-14 22:36:00,63.3,50.5,25.34,ESE,112,12.8,12.8,63,0.00,,---,0.04,VWS V14.01,2013-05-15 04:36:00,
2013-05-14 22:37:00,63.3,50.5,25.34,East,97,8.7,12.8,63,0.00,,---,0.04,VWS V14.01,2013-05-15 04:37:00,
2013-05-14 22:39:00,63.3,50.5,25.34,SE,133,4.0,10.1,63,0.00,,---,0.04,VWS V14.01,2013-05-15 04:39:00,
2013-05-14 22:40:00,63.3,50.5,25.34,SE,133,4.0,4.0,63,0.00,,---,0.04,VWS V14.01,2013-05-15 04:40:00,
2013-05-14 22:43:00,63.3,50.5,25.34,ESE,108,7.2,7.2,63,0.00,,---,0.04,VWS V14.01,2013-05-15 04:43:00,
2013-05-14 22:44:00,63.3,50.5,25.34,ESE,108,7.2,7.2,63,0.00,,---,0.04,VWS V14.01,2013-05-15 04:44:00,
2013-05-14 22:46:00,63.3,50.1,25.34,SE,142,7.6,7.6,62,0.00,,---,0.04,VWS V14.01,2013-05-15 04:46:00,
2013-05-14 22:47:00,63.3,50.1,25.34,SE,142,7.6,7.6,62,0.00,,---,0.04,VWS V14.01,2013-05-15 04:47:00,
2013-05-14 22:49:00,63.3,50.1,25.34,SE,130,5.8,12.3,62,0.00,,---,0.04,VWS V14.01,2013-05-15 04:49:00,
2013-05-14 22:50:00,63.3,50.1,25.34,SE,142,8.7,8.7,62,0.00,,---,0.04,VWS V14.01,2013-05-15 04:50:00,
2013-05-14 22:53:00,63.5,49.8,25.34,ESE,122,5.4,8.1,61,0.00,,---,0.04,VWS V14.01,2013-05-15 04:53:00,
2013-05-14 22:54:00,63.5,49.8,25.34,ESE,122,5.4,5.4,61,0.00,,---,0.04,VWS V14.01,2013-05-15 04:54:00,
2013-05-14 22:56:00,63.5,50.3,25.34,East,81,6.7,6.7,62,0.00,,---,0.04,VWS V14.01,2013-05-15 04:56:00,
2013-05-14 22:57:00,63.5,50.3,25.34,East,81,6.7,6.7,62,0.00,,---,0.04,VWS V14.01,2013-05-15 04:57:00,
2013-05-14 22:58:00,63.5,50.3,25.34,East,81,6.7,6.7,62,0.00,,---,0.04,VWS V14.01,2013-05-15 04:58:00,
2013-05-14 23:00:00,63.3,49.7,25.34,SE,144,8.3,8.3,61,0.00,,---,0.04,VWS V14.01,2013-05-15 05:00:00,